Time,TemperatureF,DewpointF,PressureIn,WindDirection,WindDirectionDegrees,WindSpeedMPH,WindSpeedGustMPH,Humidity,HourlyPrecipIn,Conditions,Clouds,dailyrainin,SoftwareType,DateUTC
2013-09-08 00:00:00,63.1,60.7,29.92,South,174,0.0,0.0,92,0.00,,,0.00,Wunderground v.1.15,2013-09-08 04:00:00,
2013-09-08 00:01:00,63.1,60.7,29.92,South,174,0.0,0.0,92,0.00,,,0.00,Wunderground v.1.15,2013-09-08 04:01:00,
2013-09-08 00:02:00,63.1,61.0,29.92,South,174,0.0,0.0,93,0.00,,,0.00,Wunderground v.1.15,2013-09-08 04:02:00,
2013-09-08 00:03:00,62.9,60.8,29.92,South,174,0.0,0.0,93,0.00,,,0.00,Wunderground v.1.15,2013-09-08 04:03:00,
2013-09-08 00:04:00,62.9,60.8,29.92,South,174,0.0,0.0,93,0.00,,,0.00,Wunderground v.1.15,2013-09-08 04:04:00,
2013-09-08 00:08:00,62.7,60.3,29.92,South,174,0.0,0.0,92,0.00,,,0.00,Wunderground v.1.15,2013-09-08 04:08:00,
2013-09-08 00:10:00,62.7,60.3,29.92,South,174,0.0,0.0,92,0.00,,,0.00,Wunderground v.1.15,2013-09-08 04:10:00,
2013-09-08 00:14:00,62.6,60.5,29.92,South,174,0.0,0.0,93,0.00,,,0.00,Wunderground v.1.15,2013-09-08 04:14:00,
2013-09-08 00:15:00,62.6,60.5,29.92,South,174,0.0,0.0,93,0.00,,,0.00,Wunderground v.1.15,2013-09-08 04:15:00,
2013-09-08 00:17:00,62.6,60.5,29.92,South,174,0.0,0.0,93,0.00,,,0.00,Wunderground v.1.15,2013-09-08 04:17:00,
2013-09-08 00:18:00,62.4,60.3,29.91,South,174,0.0,0.0,93,0.00,,,0.00,Wunderground v.1.15,2013-09-08 04:18:00,
2013-09-08 00:20:00,62.4,60.3,29.91,South,174,0.0,0.0,93,0.00,,,0.00,Wunderground v.1.15,2013-09-08 04:20:00,
2013-09-08 00:22:00,62.4,60.3,29.91,South,174,0.0,0.0,93,0.00,,,0.00,Wunderground v.1.15,2013-09-08 04:22:00,
2013-09-08 00:23:00,62.4,60.3,29.91,South,174,0.0,0.0,93,0.00,,,0.00,Wunderground v.1.15,2013-09-08 04:23:00,
2013-09-08 00:24:00,62.4,60.3,29.91,South,174,0.0,0.0,93,0.00,,,0.00,Wunderground v.1.15,2013-09-08 04:24:00,
2013-09-08 00:26:00,62.3,60.2,29.91,South,174,0.0,0.0,93,0.00,,,0.00,Wunderground v.1.15,2013-09-08 04:26:00,
2013-09-08 00:27:00,62.3,60.2,29.91,South,174,0.0,0.0,93,0.00,,,0.00,Wunderground v.1.15,2013-09-08 04:27:00,
2013-09-08 00:29:00,62.3,60.2,29.91,South,174,0.0,0.0,93,0.00,,,0.00,Wunderground v.1.15,2013-09-08 04:29:00,
2013-09-08 00:33:00,62.1,60.1,29.92,South,174,0.0,0.0,93,0.00,,,0.00,Wunderground v.1.15,2013-09-08 04:33:00,
2013-09-08 00:37:00,62.1,60.1,29.92,South,174,0.0,0.0,93,0.00,,,0.00,Wunderground v.1.15,2013-09-08 04:37:00,
2013-09-08 00:38:00,62.1,60.1,29.92,South,174,0.0,0.0,93,0.00,,,0.00,Wunderground v.1.15,2013-09-08 04:38:00,
2013-09-08 00:42:00,62.0,60.0,29.92,South,174,0.0,0.0,93,0.00,,,0.00,Wunderground v.1.15,2013-09-08 04:42:00,
2013-09-08 00:43:00,62.0,60.0,29.92,South,174,0.0,0.0,93,0.00,,,0.00,Wunderground v.1.15,2013-09-08 04:43:00,
2013-09-08 00:47:00,61.8,59.8,29.92,South,174,0.0,0.0,93,0.00,,,0.00,Wunderground v.1.15,2013-09-08 04:47:00,
2013-09-08 00:48:00,61.8,59.8,29.92,South,174,0.0,0.0,93,0.00,,,0.00,Wunderground v.1.15,2013-09-08 04:48:00,
2013-09-08 00:50:00,61.8,59.8,29.92,South,174,0.0,0.0,93,0.00,,,0.00,Wunderground v.1.15,2013-09-08 04:50:00,
2013-09-08 00:54:00,61.8,59.8,29.92,South,174,0.0,0.0,93,0.00,,,0.00,Wunderground v.1.15,2013-09-08 04:54:00,
2013-09-08 00:55:00,61.8,59.8,29.92,South,174,0.0,0.0,93,0.00,,,0.00,Wunderground v.1.15,2013-09-08 04:55:00,
2013-09-08 00:57:00,61.6,59.6,29.92,South,174,0.0,0.0,93,0.00,,,0.00,Wunderground v.1.15,2013-09-08 04:57:00,
2013-09-08 00:58:00,61.6,59.6,29.92,South,174,0.0,0.0,93,0.00,,,0.00,Wunderground v.1.15,2013-09-08 04:58:00,
2013-09-08 01:02:00,61.6,59.6,29.92,South,174,0.0,0.0,93,0.00,,,0.00,Wunderground v.1.15,2013-09-08 05:02:00,
2013-09-08 01:04:00,61.6,59.6,29.92,South,174,0.0,0.0,93,0.00,,,0.00,Wunderground v.1.15,2013-09-08 05:04:00,
2013-09-08 01:05:00,61.6,59.6,29.92,South,174,0.0,0.0,93,0.00,,,0.00,Wunderground v.1.15,2013-09-08 05:05:00,
2013-09-08 01:08:00,61.6,59.6,29.92,South,174,0.0,0.0,93,0.00,,,0.00,Wunderground v.1.15,2013-09-08 05:08:00,
2013-09-08 01:09:00,61.6,59.6,29.92,South,174,0.0,0.0,93,0.00,,,0.00,Wunderground v.1.15,2013-09-08 05:09:00,
2013-09-08 01:11:00,61.5,59.5,29.92,South,174,0.0,0.0,93,0.00,,,0.00,Wunderground v.1.15,2013-09-08 05:11:00,
2013-09-08 01:12:00,61.5,59.5,29.92,South,174,0.0,0.0,93,0.00,,,0.00,Wunderground v.1.15,2013-09-08 05:12:00,
2013-09-08 01:14:00,61.5,59.5,29.92,South,174,0.0,0.0,93,0.00,,,0.00,Wunderground v.1.15,2013-09-08 05:14:00,
2013-09-08 01:15:00,61.5,59.5,29.92,South,174,0.0,0.0,93,0.00,,,0.00,Wunderground v.1.15,2013-09-08 05:15:00,
2013-09-08 01:18:00,61.3,59.3,29.92,South,174,0.0,0.0,93,0.00,,,0.00,Wunderground v.1.15,2013-09-08 05:18:00,
2013-09-08 01:19:00,61.3,59.3,29.92,South,174,0.0,0.0,93,0.00,,,0.00,Wunderground v.1.15,2013-09-08 05:19:00,
2013-09-08 01:20:00,61.3,59.6,29.92,South,174,0.0,0.0,94,0.00,,,0.00,Wunderground v.1.15,2013-09-08 05:20:00,
2013-09-08 01:22:00,61.3,59.6,29.92,South,174,0.0,0.0,94,0.00,,,0.00,Wunderground v.1.15,2013-09-08 05:22:00,
2013-09-08 01:23:00,61.3,59.6,29.92,South,174,0.0,0.0,94,0.00,,,0.00,Wunderground v.1.15,2013-09-08 05:23:00,
2013-09-08 01:25:00,61.3,59.6,29.92,South,174,0.0,0.0,94,0.00,,,0.00,Wunderground v.1.15,2013-09-08 05:25:00,
2013-09-08 01:27:00,61.3,59.6,29.92,South,174,0.0,0.0,94,0.00,,,0.00,Wunderground v.1.15,2013-09-08 05:27:00,
2013-09-08 01:28:00,61.3,59.6,29.92,South,174,0.0,0.0,94,0.00,,,0.00,Wunderground v.1.15,2013-09-08 05:28:00,
2013-09-08 01:30:00,61.2,59.5,29.92,South,174,0.0,0.0,94,0.00,,,0.00,Wunderground v.1.15,2013-09-08 05:30:00,
2013-09-08 01:34:00,61.2,59.5,29.91,South,174,0.0,0.0,94,0.00,,,0.00,Wunderground v.1.15,2013-09-08 05:34:00,
2013-09-08 01:35:00,61.2,59.5,29.91,South,174,0.0,0.0,94,0.00,,,0.00,Wunderground v.1.15,2013-09-08 05:35:00,
2013-09-08 01:36:00,61.2,59.5,29.91,South,174,0.0,0.0,94,0.00,,,0.00,Wunderground v.1.15,2013-09-08 05:36:00,
2013-09-08 01:37:00,61.2,59.5,29.91,South,174,0.0,0.0,94,0.00,,,0.00,Wunderground v.1.15,2013-09-08 05:37:00,
2013-09-08 01:40:00,61.2,59.5,29.91,South,174,0.0,0.0,94,0.00,,,0.00,Wunderground v.1.15,2013-09-08 05:40:00,
2013-09-08 01:43:00,61.2,59.5,29.91,South,174,0.0,0.0,94,0.00,,,0.00,Wunderground v.1.15,2013-09-08 05:43:00,
2013-09-08 01:45:00,61.2,59.5,29.91,South,174,0.0,0.0,94,0.00,,,0.00,Wunderground v.1.15,2013-09-08 05:45:00,
2013-09-08 01:47:00,61.2,59.5,29.91,South,174,0.0,0.0,94,0.00,,,0.00,Wunderground v.1.15,2013-09-08 05:47:00,
2013-09-08 01:48:00,61.2,59.5,29.91,South,174,0.0,0.0,94,0.00,,,0.00,Wunderground v.1.15,2013-09-08 05:48:00,
2013-09-08 01:49:00,61.0,59.3,29.91,South,174,0.0,0.0,94,0.00,,,0.00,Wunderground v.1.15,2013-09-08 05:49:00,
2013-09-08 01:50:00,61.0,59.3,29.91,South,174,0.0,0.0,94,0.00,,,0.00,Wunderground v.1.15,2013-09-08 05:50:00,
2013-09-08 01:51:00,61.0,59.3,29.91,South,174,0.0,0.0,94,0.00,,,0.00,Wunderground v.1.15,2013-09-08 05:51:00,
2013-09-08 01:53:00,61.0,59.3,29.91,South,174,0.0,0.0,94,0.00,,,0.00,Wunderground v.1.15,2013-09-08 05:53:00,
2013-09-08 01:55:00,61.0,59.3,29.91,South,174,0.0,0.0,94,0.00,,,0.00,Wunderground v.1.15,2013-09-08 05:55:00,
2013-09-08 01:57:00,61.0,59.3,29.91,South,174,0.0,0.0,94,0.00,,,0.00,Wunderground v.1.15,2013-09-08 05:57:00,
2013-09-08 01:58:00,61.0,59.3,29.91,South,174,0.0,0.0,94,0.00,,,0.00,Wunderground v.1.15,2013-09-08 05:58:00,
2013-09-08 01:59:00,61.0,59.3,29.91,South,174,0.0,0.0,94,0.00,,,0.00,Wunderground v.1.15,2013-09-08 05:59:00,
2013-09-08 02:01:00,61.0,59.3,29.91,South,174,0.0,0.0,94,0.00,,,0.00,Wunderground v.1.15,2013-09-08 06:01:00,
2013-09-08 02:03:00,61.0,59.3,29.92,South,174,0.0,0.0,94,0.00,,,0.00,Wunderground v.1.15,2013-09-08 06:03:00,
2013-09-08 02:04:00,61.0,59.3,29.92,South,174,0.0,0.0,94,0.00,,,0.00,Wunderground v.1.15,2013-09-08 06:04:00,
2013-09-08 02:08:00,61.2,59.5,29.92,South,174,0.0,0.0,94,0.00,,,0.00,Wunderground v.1.15,2013-09-08 06:08:00,
2013-09-08 02:09:00,61.2,59.5,29.92,South,174,0.0,0.0,94,0.00,,,0.00,Wunderground v.1.15,2013-09-08 06:09:00,
2013-09-08 02:11:00,61.2,59.5,29.92,South,174,0.0,0.0,94,0.00,,,0.00,Wunderground v.1.15,2013-09-08 06:11:00,
2013-09-08 02:14:00,61.0,59.3,29.92,South,174,0.0,0.0,94,0.00,,,0.00,Wunderground v.1.15,2013-09-08 06:14:00,
2013-09-08 02:16:00,61.0,59.3,29.92,South,174,0.0,0.0,94,0.00,,,0.00,Wunderground v.1.15,2013-09-08 06:16:00,
2013-09-08 02:18:00,61.0,59.3,29.92,South,174,0.0,0.0,94,0.00,,,0.00,Wunderground v.1.15,2013-09-08 06:18:00,
2013-09-08 02:20:00,61.0,59.3,29.92,South,174,0.0,0.0,94,0.00,,,0.00,Wunderground v.1.15,2013-09-08 06:20:00,
2013-09-08 02:22:00,61.0,59.3,29.92,South,174,0.0,0.0,94,0.00,,,0.00,Wunderground v.1.15,2013-09-08 06:22:00,
2013-09-08 02:24:00,60.9,59.2,29.92,South,174,0.0,0.0,94,0.00,,,0.00,Wunderground v.1.15,2013-09-08 06:24:00,
2013-09-08 02:27:00,60.9,59.2,29.92,South,174,0.0,0.0,94,0.00,,,0.00,Wunderground v.1.15,2013-09-08 06:27:00,
2013-09-08 02:29:00,60.9,59.2,29.92,South,174,0.0,0.0,94,0.00,,,0.00,Wunderground v.1.15,2013-09-08 06:29:00,
2013-09-08 02:30:00,60.9,59.2,29.92,South,174,0.0,0.0,94,0.00,,,0.00,Wunderground v.1.15,2013-09-08 06:30:00,
2013-09-08 02:32:00,60.9,59.2,29.92,South,174,0.0,0.0,94,0.00,,,0.00,Wunderground v.1.15,2013-09-08 06:32:00,
2013-09-08 02:33:00,60.9,59.2,29.92,South,174,0.0,0.0,94,0.00,,,0.00,Wunderground v.1.15,2013-09-08 06:33:00,
2013-09-08 02:36:00,60.9,59.2,29.92,South,174,0.0,0.0,94,0.00,,,0.00,Wunderground v.1.15,2013-09-08 06:36:00,
2013-09-08 02:39:00,60.9,59.2,29.92,South,174,0.0,0.0,94,0.00,,,0.00,Wunderground v.1.15,2013-09-08 06:39:00,
2013-09-08 02:41:00,60.7,59.0,29.92,South,174,0.0,0.0,94,0.00,,,0.00,Wunderground v.1.15,2013-09-08 06:41:00,
2013-09-08 02:42:00,60.7,59.3,29.92,South,174,0.0,0.0,95,0.00,,,0.00,Wunderground v.1.15,2013-09-08 06:42:00,
2013-09-08 02:44:00,60.7,59.3,29.92,South,174,0.0,0.0,95,0.00,,,0.00,Wunderground v.1.15,2013-09-08 06:44:00,
2013-09-08 02:46:00,60.7,59.3,29.92,South,174,0.0,0.0,95,0.00,,,0.00,Wunderground v.1.15,2013-09-08 06:46:00,
2013-09-08 02:47:00,60.7,59.3,29.92,South,174,0.0,0.0,95,0.00,,,0.00,Wunderground v.1.15,2013-09-08 06:47:00,
2013-09-08 02:48:00,60.7,59.3,29.92,South,174,0.0,0.0,95,0.00,,,0.00,Wunderground v.1.15,2013-09-08 06:48:00,
2013-09-08 02:54:00,60.5,59.1,29.92,South,174,0.0,0.0,95,0.00,,,0.00,Wunderground v.1.15,2013-09-08 06:54:00,
2013-09-08 02:55:00,60.5,59.1,29.92,South,174,0.0,0.0,95,0.00,,,0.00,Wunderground v.1.15,2013-09-08 06:55:00,
2013-09-08 02:57:00,60.5,59.1,29.92,South,174,0.0,0.0,95,0.00,,,0.00,Wunderground v.1.15,2013-09-08 06:57:00,
2013-09-08 02:59:00,60.5,59.1,29.92,South,174,0.0,0.0,95,0.00,,,0.00,Wunderground v.1.15,2013-09-08 06:59:00,
2013-09-08 03:00:00,60.5,59.1,29.92,South,174,0.0,0.0,95,0.00,,,0.00,Wunderground v.1.15,2013-09-08 07:00:00,
2013-09-08 03:01:00,60.5,59.1,29.92,South,174,0.0,0.0,95,0.00,,,0.00,Wunderground v.1.15,2013-09-08 07:01:00,
2013-09-08 03:03:00,60.5,59.1,29.91,South,174,0.0,0.0,95,0.00,,,0.00,Wunderground v.1.15,2013-09-08 07:03:00,
2013-09-08 03:05:00,60.5,59.1,29.91,South,174,0.0,0.0,95,0.00,,,0.00,Wunderground v.1.15,2013-09-08 07:05:00,
2013-09-08 03:11:00,60.4,59.0,29.91,South,174,0.0,0.0,95,0.00,,,0.00,Wunderground v.1.15,2013-09-08 07:11:00,
2013-09-08 03:13:00,60.4,59.0,29.91,South,174,0.0,0.0,95,0.00,,,0.00,Wunderground v.1.15,2013-09-08 07:13:00,
2013-09-08 03:16:00,60.4,59.0,29.91,South,174,0.0,0.0,95,0.00,,,0.00,Wunderground v.1.15,2013-09-08 07:16:00,
2013-09-08 03:17:00,60.2,58.8,29.91,South,174,0.0,0.0,95,0.00,,,0.00,Wunderground v.1.15,2013-09-08 07:17:00,
2013-09-08 03:19:00,60.2,58.8,29.91,South,174,0.0,0.0,95,0.00,,,0.00,Wunderground v.1.15,2013-09-08 07:19:00,
2013-09-08 03:22:00,60.2,58.8,29.91,South,174,0.0,0.0,95,0.00,,,0.00,Wunderground v.1.15,2013-09-08 07:22:00,
2013-09-08 03:23:00,60.2,58.8,29.91,South,174,0.0,0.0,95,0.00,,,0.00,Wunderground v.1.15,2013-09-08 07:23:00,
2013-09-08 03:24:00,60.1,58.7,29.91,South,174,0.0,0.0,95,0.00,,,0.00,Wunderground v.1.15,2013-09-08 07:24:00,
2013-09-08 03:25:00,60.1,58.7,29.91,South,174,0.0,0.0,95,0.00,,,0.00,Wunderground v.1.15,2013-09-08 07:25:00,
2013-09-08 03:26:00,60.1,58.7,29.91,South,174,0.0,0.0,95,0.00,,,0.00,Wunderground v.1.15,2013-09-08 07:26:00,
2013-09-08 03:32:00,59.9,58.5,29.91,South,174,0.0,0.0,95,0.00,,,0.00,Wunderground v.1.15,2013-09-08 07:32:00,
2013-09-08 03:33:00,59.9,58.5,29.91,South,174,0.0,0.0,95,0.00,,,0.00,Wunderground v.1.15,2013-09-08 07:33:00,
2013-09-08 03:35:00,59.9,58.5,29.91,South,174,0.0,0.0,95,0.00,,,0.00,Wunderground v.1.15,2013-09-08 07:35:00,
2013-09-08 03:37:00,59.9,58.5,29.91,South,174,0.0,0.0,95,0.00,,,0.00,Wunderground v.1.15,2013-09-08 07:37:00,
2013-09-08 03:38:00,59.9,58.5,29.91,South,174,0.0,0.0,95,0.00,,,0.00,Wunderground v.1.15,2013-09-08 07:38:00,
2013-09-08 03:39:00,59.8,58.4,29.91,South,174,0.0,0.0,95,0.00,,,0.00,Wunderground v.1.15,2013-09-08 07:39:00,
2013-09-08 03:42:00,59.8,58.4,29.91,South,174,0.0,0.0,95,0.00,,,0.00,Wunderground v.1.15,2013-09-08 07:42:00,
2013-09-08 03:44:00,59.6,58.2,29.91,South,174,0.0,0.0,95,0.00,,,0.00,Wunderground v.1.15,2013-09-08 07:44:00,
2013-09-08 03:45:00,59.6,58.2,29.91,South,174,0.0,0.0,95,0.00,,,0.00,Wunderground v.1.15,2013-09-08 07:45:00,
2013-09-08 03:48:00,59.6,58.2,29.90,South,174,0.0,0.0,95,0.00,,,0.00,Wunderground v.1.15,2013-09-08 07:48:00,
2013-09-08 03:50:00,59.5,58.1,29.90,South,174,0.0,0.0,95,0.00,,,0.00,Wunderground v.1.15,2013-09-08 07:50:00,
2013-09-08 03:51:00,59.5,58.1,29.90,South,174,0.0,0.0,95,0.00,,,0.00,Wunderground v.1.15,2013-09-08 07:51:00,
2013-09-08 03:54:00,59.5,58.1,29.90,South,174,0.0,0.0,95,0.00,,,0.00,Wunderground v.1.15,2013-09-08 07:54:00,
2013-09-08 03:56:00,59.3,57.9,29.90,South,174,0.0,0.0,95,0.00,,,0.00,Wunderground v.1.15,2013-09-08 07:56:00,
2013-09-08 03:57:00,59.3,57.6,29.90,South,174,0.0,0.0,94,0.00,,,0.00,Wunderground v.1.15,2013-09-08 07:57:00,
2013-09-08 04:00:00,59.3,57.9,29.90,South,174,0.0,0.0,95,0.00,,,0.00,Wunderground v.1.15,2013-09-08 08:00:00,
2013-09-08 04:01:00,59.2,57.8,29.90,South,174,0.0,0.0,95,0.00,,,0.00,Wunderground v.1.15,2013-09-08 08:01:00,
2013-09-08 04:03:00,59.2,57.8,29.91,South,174,0.0,0.0,95,0.00,,,0.00,Wunderground v.1.15,2013-09-08 08:03:00,
2013-09-08 04:06:00,59.2,57.8,29.91,South,174,0.0,0.0,95,0.00,,,0.00,Wunderground v.1.15,2013-09-08 08:06:00,
2013-09-08 04:09:00,59.0,57.6,29.91,South,174,0.0,0.0,95,0.00,,,0.00,Wunderground v.1.15,2013-09-08 08:09:00,
2013-09-08 04:12:00,59.0,57.6,29.91,South,174,0.0,0.0,95,0.00,,,0.00,Wunderground v.1.15,2013-09-08 08:12:00,
2013-09-08 04:13:00,59.0,57.6,29.91,South,174,0.0,0.0,95,0.00,,,0.00,Wunderground v.1.15,2013-09-08 08:13:00,
2013-09-08 04:14:00,59.0,57.6,29.91,South,174,0.0,0.0,95,0.00,,,0.00,Wunderground v.1.15,2013-09-08 08:14:00,
2013-09-08 04:16:00,59.0,57.6,29.91,South,174,0.0,0.0,95,0.00,,,0.00,Wunderground v.1.15,2013-09-08 08:16:00,
2013-09-08 04:18:00,58.9,57.5,29.91,South,174,0.0,0.0,95,0.00,,,0.00,Wunderground v.1.15,2013-09-08 08:18:00,
2013-09-08 04:19:00,58.9,57.5,29.91,South,174,0.0,0.0,95,0.00,,,0.00,Wunderground v.1.15,2013-09-08 08:19:00,
2013-09-08 04:22:00,58.9,57.5,29.91,South,174,0.0,0.0,95,0.00,,,0.00,Wunderground v.1.15,2013-09-08 08:22:00,
2013-09-08 04:24:00,58.9,57.5,29.91,South,174,0.0,0.0,95,0.00,,,0.00,Wunderground v.1.15,2013-09-08 08:24:00,
2013-09-08 04:25:00,58.7,57.3,29.91,South,174,0.0,0.0,95,0.00,,,0.00,Wunderground v.1.15,2013-09-08 08:25:00,
2013-09-08 04:27:00,58.7,57.3,29.91,South,174,0.0,0.0,95,0.00,,,0.00,Wunderground v.1.15,2013-09-08 08:27:00,
2013-09-08 04:30:00,58.7,57.3,29.91,South,174,0.0,0.0,95,0.00,,,0.00,Wunderground v.1.15,2013-09-08 08:30:00,
2013-09-08 04:31:00,58.7,57.3,29.91,South,174,0.0,0.0,95,0.00,,,0.00,Wunderground v.1.15,2013-09-08 08:31:00,
2013-09-08 04:36:00,58.6,57.2,29.90,South,174,0.0,0.0,95,0.00,,,0.00,Wunderground v.1.15,2013-09-08 08:36:00,
2013-09-08 04:37:00,58.6,57.2,29.90,South,174,0.0,0.0,95,0.00,,,0.00,Wunderground v.1.15,2013-09-08 08:37:00,
2013-09-08 04:38:00,58.6,57.2,29.90,South,174,0.0,0.0,95,0.00,,,0.00,Wunderground v.1.15,2013-09-08 08:38:00,
2013-09-08 04:39:00,58.6,57.2,29.90,South,174,0.0,0.0,95,0.00,,,0.00,Wunderground v.1.15,2013-09-08 08:39:00,
2013-09-08 04:43:00,58.4,57.0,29.90,South,174,0.0,0.0,95,0.00,,,0.00,Wunderground v.1.15,2013-09-08 08:43:00,
2013-09-08 04:44:00,58.4,57.0,29.90,South,174,0.0,0.0,95,0.00,,,0.00,Wunderground v.1.15,2013-09-08 08:44:00,
2013-09-08 04:48:00,58.4,57.0,29.91,South,174,0.0,0.0,95,0.00,,,0.00,Wunderground v.1.15,2013-09-08 08:48:00,
2013-09-08 04:49:00,58.4,57.0,29.91,South,174,0.0,0.0,95,0.00,,,0.00,Wunderground v.1.15,2013-09-08 08:49:00,
2013-09-08 04:50:00,58.4,57.0,29.91,South,174,0.0,0.0,95,0.00,,,0.00,Wunderground v.1.15,2013-09-08 08:50:00,
2013-09-08 04:54:00,58.4,57.0,29.91,South,174,0.0,0.0,95,0.00,,,0.00,Wunderground v.1.15,2013-09-08 08:54:00,
2013-09-08 04:55:00,58.4,57.0,29.91,South,174,0.0,0.0,95,0.00,,,0.00,Wunderground v.1.15,2013-09-08 08:55:00,
2013-09-08 04:57:00,58.3,56.9,29.91,South,174,0.0,0.0,95,0.00,,,0.00,Wunderground v.1.15,2013-09-08 08:57:00,
2013-09-08 05:01:00,58.3,56.9,29.91,South,174,0.0,0.0,95,0.00,,,0.00,Wunderground v.1.15,2013-09-08 09:01:00,
2013-09-08 05:02:00,58.3,56.9,29.91,South,174,0.0,0.0,95,0.00,,,0.00,Wunderground v.1.15,2013-09-08 09:02:00,
2013-09-08 05:03:00,58.3,56.9,29.91,South,174,0.0,0.0,95,0.00,,,0.00,Wunderground v.1.15,2013-09-08 09:03:00,
2013-09-08 05:06:00,58.3,56.9,29.91,South,174,0.0,0.0,95,0.00,,,0.00,Wunderground v.1.15,2013-09-08 09:06:00,
2013-09-08 05:07:00,58.3,56.9,29.91,South,174,0.0,0.0,95,0.00,,,0.00,Wunderground v.1.15,2013-09-08 09:07:00,
2013-09-08 05:09:00,58.3,56.9,29.91,South,174,0.0,0.0,95,0.00,,,0.00,Wunderground v.1.15,2013-09-08 09:09:00,
2013-09-08 05:12:00,58.3,56.9,29.91,South,174,0.0,0.0,95,0.00,,,0.00,Wunderground v.1.15,2013-09-08 09:12:00,
2013-09-08 05:14:00,58.3,56.9,29.91,South,174,0.0,0.0,95,0.00,,,0.00,Wunderground v.1.15,2013-09-08 09:14:00,
2013-09-08 05:17:00,58.1,56.7,29.91,South,174,0.0,0.0,95,0.00,,,0.00,Wunderground v.1.15,2013-09-08 09:17:00,
2013-09-08 05:18:00,58.1,56.7,29.91,South,174,0.0,0.0,95,0.00,,,0.00,Wunderground v.1.15,2013-09-08 09:18:00,
2013-09-08 05:19:00,58.1,56.7,29.91,South,174,0.0,0.0,95,0.00,,,0.00,Wunderground v.1.15,2013-09-08 09:19:00,
2013-09-08 05:24:00,58.1,56.7,29.91,South,174,0.0,0.0,95,0.00,,,0.00,Wunderground v.1.15,2013-09-08 09:24:00,
2013-09-08 05:26:00,58.1,56.7,29.91,South,174,0.0,0.0,95,0.00,,,0.00,Wunderground v.1.15,2013-09-08 09:26:00,
2013-09-08 05:27:00,58.1,56.7,29.91,South,174,0.0,0.0,95,0.00,,,0.00,Wunderground v.1.15,2013-09-08 09:27:00,
2013-09-08 05:30:00,58.0,56.6,29.91,South,174,0.0,0.0,95,0.00,,,0.00,Wunderground v.1.15,2013-09-08 09:30:00,
2013-09-08 05:33:00,58.0,56.6,29.91,South,174,0.0,0.0,95,0.00,,,0.00,Wunderground v.1.15,2013-09-08 09:33:00,
2013-09-08 05:34:00,58.0,56.6,29.91,South,174,0.0,0.0,95,0.00,,,0.00,Wunderground v.1.15,2013-09-08 09:34:00,
2013-09-08 05:35:00,58.0,56.6,29.91,South,174,0.0,0.0,95,0.00,,,0.00,Wunderground v.1.15,2013-09-08 09:35:00,
2013-09-08 05:38:00,58.0,56.6,29.91,South,174,0.0,0.0,95,0.00,,,0.00,Wunderground v.1.15,2013-09-08 09:38:00,
2013-09-08 05:41:00,57.8,56.4,29.91,South,174,0.0,0.0,95,0.00,,,0.00,Wunderground v.1.15,2013-09-08 09:41:00,
2013-09-08 05:43:00,57.8,56.4,29.91,South,174,0.0,0.0,95,0.00,,,0.00,Wunderground v.1.15,2013-09-08 09:43:00,
2013-09-08 05:44:00,57.8,56.4,29.91,South,174,0.0,0.0,95,0.00,,,0.00,Wunderground v.1.15,2013-09-08 09:44:00,
2013-09-08 05:48:00,57.8,56.4,29.91,South,174,0.0,0.0,95,0.00,,,0.00,Wunderground v.1.15,2013-09-08 09:48:00,
2013-09-08 05:51:00,57.6,56.2,29.91,South,174,0.0,0.0,95,0.00,,,0.00,Wunderground v.1.15,2013-09-08 09:51:00,
2013-09-08 05:53:00,57.6,56.2,29.91,South,174,0.0,0.0,95,0.00,,,0.00,Wunderground v.1.15,2013-09-08 09:53:00,
2013-09-08 05:55:00,57.6,56.2,29.91,South,174,0.0,0.0,95,0.00,,,0.00,Wunderground v.1.15,2013-09-08 09:55:00,
2013-09-08 06:00:00,57.6,56.2,29.91,South,174,0.0,0.0,95,0.00,,,0.00,Wunderground v.1.15,2013-09-08 10:00:00,
2013-09-08 06:01:00,57.6,56.2,29.91,South,174,0.0,0.0,95,0.00,,,0.00,Wunderground v.1.15,2013-09-08 10:01:00,
2013-09-08 06:02:00,57.6,56.2,29.91,South,174,0.0,0.0,95,0.00,,,0.00,Wunderground v.1.15,2013-09-08 10:02:00,
2013-09-08 06:03:00,57.5,56.1,29.91,South,174,0.0,0.0,95,0.00,,,0.00,Wunderground v.1.15,2013-09-08 10:03:00,
2013-09-08 06:05:00,57.5,56.1,29.91,South,174,0.0,0.0,95,0.00,,,0.00,Wunderground v.1.15,2013-09-08 10:05:00,
2013-09-08 06:09:00,57.5,56.1,29.91,South,174,0.0,0.0,95,0.00,,,0.00,Wunderground v.1.15,2013-09-08 10:09:00,
2013-09-08 06:11:00,57.3,55.9,29.91,South,174,0.0,0.0,95,0.00,,,0.00,Wunderground v.1.15,2013-09-08 10:11:00,
2013-09-08 06:12:00,57.3,55.9,29.91,South,174,0.0,0.0,95,0.00,,,0.00,Wunderground v.1.15,2013-09-08 10:12:00,
2013-09-08 06:14:00,57.3,55.9,29.91,South,174,0.0,0.0,95,0.00,,,0.00,Wunderground v.1.15,2013-09-08 10:14:00,
2013-09-08 06:18:00,57.3,55.9,29.92,South,174,0.0,0.0,95,0.00,,,0.00,Wunderground v.1.15,2013-09-08 10:18:00,
2013-09-08 06:19:00,57.3,55.9,29.92,South,174,0.0,0.0,95,0.00,,,0.00,Wunderground v.1.15,2013-09-08 10:19:00,
2013-09-08 06:20:00,57.3,55.9,29.92,South,174,0.0,0.0,95,0.00,,,0.00,Wunderground v.1.15,2013-09-08 10:20:00,
2013-09-08 06:22:00,57.3,55.9,29.92,South,174,0.0,0.0,95,0.00,,,0.00,Wunderground v.1.15,2013-09-08 10:22:00,
2013-09-08 06:23:00,57.3,55.9,29.92,South,174,0.0,0.0,95,0.00,,,0.00,Wunderground v.1.15,2013-09-08 10:23:00,
2013-09-08 06:24:00,57.3,55.9,29.92,South,174,0.0,0.0,95,0.00,,,0.00,Wunderground v.1.15,2013-09-08 10:24:00,
2013-09-08 06:25:00,57.3,55.9,29.92,South,174,0.0,0.0,95,0.00,,,0.00,Wunderground v.1.15,2013-09-08 10:25:00,
2013-09-08 06:30:00,57.3,55.9,29.92,South,174,0.0,0.0,95,0.00,,,0.00,Wunderground v.1.15,2013-09-08 10:30:00,
2013-09-08 06:31:00,57.3,55.9,29.92,South,174,0.0,0.0,95,0.00,,,0.00,Wunderground v.1.15,2013-09-08 10:31:00,
2013-09-08 06:32:00,57.3,55.9,29.92,South,174,0.0,0.0,95,0.00,,,0.00,Wunderground v.1.15,2013-09-08 10:32:00,
2013-09-08 06:35:00,57.2,55.8,29.92,South,174,0.0,0.0,95,0.00,,,0.00,Wunderground v.1.15,2013-09-08 10:35:00,
2013-09-08 06:37:00,57.2,55.8,29.92,South,174,0.0,0.0,95,0.00,,,0.00,Wunderground v.1.15,2013-09-08 10:37:00,
2013-09-08 06:40:00,57.2,55.8,29.92,South,174,0.0,0.0,95,0.00,,,0.00,Wunderground v.1.15,2013-09-08 10:40:00,
2013-09-08 06:43:00,57.0,55.6,29.92,South,174,0.0,0.0,95,0.00,,,0.00,Wunderground v.1.15,2013-09-08 10:43:00,
2013-09-08 06:44:00,57.0,55.6,29.92,South,174,0.0,0.0,95,0.00,,,0.00,Wunderground v.1.15,2013-09-08 10:44:00,
2013-09-08 06:45:00,57.0,55.6,29.92,South,174,0.0,0.0,95,0.00,,,0.00,Wunderground v.1.15,2013-09-08 10:45:00,
2013-09-08 06:46:00,57.0,55.6,29.92,South,174,0.0,0.0,95,0.00,,,0.00,Wunderground v.1.15,2013-09-08 10:46:00,
2013-09-08 06:52:00,56.9,55.5,29.92,South,174,0.0,0.0,95,0.00,,,0.00,Wunderground v.1.15,2013-09-08 10:52:00,
2013-09-08 06:53:00,56.9,55.5,29.92,South,174,0.0,0.0,95,0.00,,,0.00,Wunderground v.1.15,2013-09-08 10:53:00,
2013-09-08 06:54:00,56.9,55.5,29.92,South,174,0.0,0.0,95,0.00,,,0.00,Wunderground v.1.15,2013-09-08 10:54:00,
2013-09-08 07:00:00,56.9,55.5,29.92,South,174,0.0,0.0,95,0.00,,,0.00,Wunderground v.1.15,2013-09-08 11:00:00,
2013-09-08 07:01:00,56.9,55.5,29.92,South,174,0.0,0.0,95,0.00,,,0.00,Wunderground v.1.15,2013-09-08 11:01:00,
2013-09-08 07:04:00,56.9,55.5,29.92,South,174,0.0,0.0,95,0.00,,,0.00,Wunderground v.1.15,2013-09-08 11:04:00,
2013-09-08 07:06:00,56.9,55.5,29.92,South,174,0.0,0.0,95,0.00,,,0.00,Wunderground v.1.15,2013-09-08 11:06:00,
2013-09-08 07:07:00,56.7,55.3,29.92,South,174,0.0,0.0,95,0.00,,,0.00,Wunderground v.1.15,2013-09-08 11:07:00,
2013-09-08 07:08:00,56.7,55.3,29.92,South,174,0.0,0.0,95,0.00,,,0.00,Wunderground v.1.15,2013-09-08 11:08:00,
2013-09-08 07:09:00,56.7,55.3,29.92,South,174,0.0,0.0,95,0.00,,,0.00,Wunderground v.1.15,2013-09-08 11:09:00,
2013-09-08 07:11:00,56.7,55.3,29.92,South,174,0.0,0.0,95,0.00,,,0.00,Wunderground v.1.15,2013-09-08 11:11:00,
2013-09-08 07:13:00,56.7,55.3,29.92,South,174,0.0,0.0,95,0.00,,,0.00,Wunderground v.1.15,2013-09-08 11:13:00,
2013-09-08 07:14:00,56.7,55.3,29.92,South,174,0.0,0.0,95,0.00,,,0.00,Wunderground v.1.15,2013-09-08 11:14:00,
2013-09-08 07:16:00,56.7,55.3,29.92,South,174,0.0,0.0,95,0.00,,,0.00,Wunderground v.1.15,2013-09-08 11:16:00,
2013-09-08 07:18:00,56.7,55.3,29.93,South,174,0.0,0.0,95,0.00,,,0.00,Wunderground v.1.15,2013-09-08 11:18:00,
2013-09-08 07:19:00,56.7,55.3,29.93,South,174,0.0,0.0,95,0.00,,,0.00,Wunderground v.1.15,2013-09-08 11:19:00,
2013-09-08 07:20:00,56.7,55.3,29.93,South,174,0.0,0.0,95,0.00,,,0.00,Wunderground v.1.15,2013-09-08 11:20:00,
2013-09-08 07:23:00,56.7,55.3,29.93,South,174,0.0,0.0,95,0.00,,,0.00,Wunderground v.1.15,2013-09-08 11:23:00,
2013-09-08 07:24:00,56.7,55.3,29.93,South,174,0.0,0.0,95,0.00,,,0.00,Wunderground v.1.15,2013-09-08 11:24:00,
2013-09-08 07:25:00,56.9,55.5,29.93,South,174,0.0,0.0,95,0.00,,,0.00,Wunderground v.1.15,2013-09-08 11:25:00,
2013-09-08 07:27:00,56.9,55.5,29.93,South,174,0.0,0.0,95,0.00,,,0.00,Wunderground v.1.15,2013-09-08 11:27:00,
2013-09-08 07:29:00,56.9,55.5,29.93,South,174,0.0,0.0,95,0.00,,,0.00,Wunderground v.1.15,2013-09-08 11:29:00,
2013-09-08 07:31:00,56.9,55.5,29.93,South,174,0.0,0.0,95,0.00,,,0.00,Wunderground v.1.15,2013-09-08 11:31:00,
2013-09-08 07:32:00,56.9,55.5,29.93,South,174,0.0,0.0,95,0.00,,,0.00,Wunderground v.1.15,2013-09-08 11:32:00,
2013-09-08 07:34:00,56.9,55.5,29.93,South,174,0.0,0.0,95,0.00,,,0.00,Wunderground v.1.15,2013-09-08 11:34:00,
2013-09-08 07:36:00,56.9,55.5,29.93,South,174,0.0,0.0,95,0.00,,,0.00,Wunderground v.1.15,2013-09-08 11:36:00,
2013-09-08 07:39:00,56.9,55.8,29.93,South,174,0.0,0.0,96,0.00,,,0.00,Wunderground v.1.15,2013-09-08 11:39:00,
2013-09-08 07:42:00,56.9,55.8,29.93,South,174,0.0,0.0,96,0.00,,,0.00,Wunderground v.1.15,2013-09-08 11:42:00,
2013-09-08 07:43:00,56.9,55.8,29.93,South,174,0.0,0.0,96,0.00,,,0.00,Wunderground v.1.15,2013-09-08 11:43:00,
2013-09-08 07:45:00,56.9,55.8,29.93,South,174,0.0,0.0,96,0.00,,,0.00,Wunderground v.1.15,2013-09-08 11:45:00,
2013-09-08 07:48:00,56.9,55.8,29.93,South,174,0.0,0.0,96,0.00,,,0.00,Wunderground v.1.15,2013-09-08 11:48:00,
2013-09-08 07:49:00,57.0,55.9,29.93,South,174,0.0,0.0,96,0.00,,,0.00,Wunderground v.1.15,2013-09-08 11:49:00,
2013-09-08 07:50:00,57.0,55.9,29.93,South,174,0.0,0.0,96,0.00,,,0.00,Wunderground v.1.15,2013-09-08 11:50:00,
2013-09-08 07:52:00,57.0,55.9,29.93,South,174,0.0,0.0,96,0.00,,,0.00,Wunderground v.1.15,2013-09-08 11:52:00,
2013-09-08 07:54:00,57.2,56.1,29.93,South,174,0.0,0.0,96,0.00,,,0.00,Wunderground v.1.15,2013-09-08 11:54:00,
2013-09-08 07:56:00,57.3,56.2,29.93,South,174,0.0,0.0,96,0.00,,,0.00,Wunderground v.1.15,2013-09-08 11:56:00,
2013-09-08 07:57:00,57.3,56.2,29.93,South,174,0.0,0.0,96,0.00,,,0.00,Wunderground v.1.15,2013-09-08 11:57:00,
2013-09-08 07:58:00,57.3,56.2,29.93,South,174,0.0,0.0,96,0.00,,,0.00,Wunderground v.1.15,2013-09-08 11:58:00,
2013-09-08 08:02:00,57.5,56.4,29.93,South,174,0.0,0.0,96,0.00,,,0.00,Wunderground v.1.15,2013-09-08 12:02:00,
2013-09-08 08:03:00,57.6,56.5,29.93,South,174,0.0,0.0,96,0.00,,,0.00,Wunderground v.1.15,2013-09-08 12:03:00,
2013-09-08 08:05:00,57.6,56.5,29.93,South,174,0.0,0.0,96,0.00,,,0.00,Wunderground v.1.15,2013-09-08 12:05:00,
2013-09-08 08:06:00,57.8,56.7,29.93,South,174,0.0,0.0,96,0.00,,,0.00,Wunderground v.1.15,2013-09-08 12:06:00,
2013-09-08 08:09:00,58.1,57.0,29.93,South,174,0.0,0.0,96,0.00,,,0.00,Wunderground v.1.15,2013-09-08 12:09:00,
2013-09-08 08:12:00,58.3,57.2,29.93,South,174,0.0,0.0,96,0.00,,,0.00,Wunderground v.1.15,2013-09-08 12:12:00,
2013-09-08 08:13:00,58.4,57.3,29.93,South,174,0.0,0.0,96,0.00,,,0.00,Wunderground v.1.15,2013-09-08 12:13:00,
2013-09-08 08:14:00,58.4,57.3,29.93,South,174,0.0,0.0,96,0.00,,,0.00,Wunderground v.1.15,2013-09-08 12:14:00,
2013-09-08 08:17:00,58.7,57.6,29.93,South,174,0.0,0.0,96,0.00,,,0.00,Wunderground v.1.15,2013-09-08 12:17:00,
2013-09-08 08:19:00,58.9,57.8,29.92,South,174,0.0,0.0,96,0.00,,,0.00,Wunderground v.1.15,2013-09-08 12:19:00,
2013-09-08 08:20:00,59.0,57.9,29.92,South,174,0.0,0.0,96,0.00,,,0.00,Wunderground v.1.15,2013-09-08 12:20:00,
2013-09-08 08:22:00,59.2,58.1,29.92,South,174,0.0,0.0,96,0.00,,,0.00,Wunderground v.1.15,2013-09-08 12:22:00,
2013-09-08 08:23:00,59.3,58.2,29.92,South,174,0.0,0.0,96,0.00,,,0.00,Wunderground v.1.15,2013-09-08 12:23:00,
2013-09-08 08:25:00,59.5,58.4,29.92,South,174,0.0,0.0,96,0.00,,,0.00,Wunderground v.1.15,2013-09-08 12:25:00,
2013-09-08 08:27:00,59.6,58.5,29.92,South,174,0.0,0.0,96,0.00,,,0.00,Wunderground v.1.15,2013-09-08 12:27:00,
2013-09-08 08:29:00,59.8,58.7,29.92,South,174,0.0,0.0,96,0.00,,,0.00,Wunderground v.1.15,2013-09-08 12:29:00,
2013-09-08 08:32:00,60.1,59.0,29.92,South,174,0.0,0.0,96,0.00,,,0.00,Wunderground v.1.15,2013-09-08 12:32:00,
2013-09-08 08:34:00,60.5,59.4,29.92,South,174,0.0,0.0,96,0.00,,,0.00,Wunderground v.1.15,2013-09-08 12:34:00,
2013-09-08 08:35:00,60.7,59.6,29.92,South,174,0.0,0.0,96,0.00,,,0.00,Wunderground v.1.15,2013-09-08 12:35:00,
2013-09-08 08:37:00,61.2,60.3,29.92,South,174,0.0,0.0,97,0.00,,,0.00,Wunderground v.1.15,2013-09-08 12:37:00,
2013-09-08 08:40:00,61.5,60.6,29.92,South,174,0.0,0.0,97,0.00,,,0.00,Wunderground v.1.15,2013-09-08 12:40:00,
2013-09-08 08:42:00,61.6,60.7,29.92,South,174,0.0,0.0,97,0.00,,,0.00,Wunderground v.1.15,2013-09-08 12:42:00,
2013-09-08 08:46:00,62.0,61.1,29.92,South,174,0.0,0.0,97,0.00,,,0.00,Wunderground v.1.15,2013-09-08 12:46:00,
2013-09-08 08:47:00,62.1,61.2,29.92,South,174,0.0,0.0,97,0.00,,,0.00,Wunderground v.1.15,2013-09-08 12:47:00,
2013-09-08 08:48:00,62.3,61.4,29.91,South,174,0.0,0.0,97,0.00,,,0.00,Wunderground v.1.15,2013-09-08 12:48:00,
2013-09-08 08:50:00,62.6,61.7,29.91,South,174,0.0,0.0,97,0.00,,,0.00,Wunderground v.1.15,2013-09-08 12:50:00,
2013-09-08 08:53:00,63.1,62.2,29.91,South,174,0.0,0.0,97,0.00,,,0.00,Wunderground v.1.15,2013-09-08 12:53:00,
2013-09-08 08:54:00,63.2,62.3,29.91,South,174,0.0,0.0,97,0.00,,,0.00,Wunderground v.1.15,2013-09-08 12:54:00,
2013-09-08 08:55:00,63.4,62.5,29.91,South,174,0.0,1.0,97,0.00,,,0.00,Wunderground v.1.15,2013-09-08 12:55:00,
2013-09-08 08:58:00,63.7,62.8,29.91,South,174,0.0,1.0,97,0.00,,,0.00,Wunderground v.1.15,2013-09-08 12:58:00,
2013-09-08 09:00:00,63.9,63.0,29.91,WSW,239,0.0,2.0,97,0.00,,,0.00,Wunderground v.1.15,2013-09-08 13:00:00,
2013-09-08 09:01:00,63.9,63.0,29.91,WSW,239,0.0,2.0,97,0.00,,,0.00,Wunderground v.1.15,2013-09-08 13:01:00,
2013-09-08 09:03:00,64.2,63.3,29.91,SSW,200,0.0,2.0,97,0.00,,,0.00,Wunderground v.1.15,2013-09-08 13:03:00,
2013-09-08 09:04:00,64.2,63.3,29.91,SSW,200,0.0,2.0,97,0.00,,,0.00,Wunderground v.1.15,2013-09-08 13:04:00,
2013-09-08 09:05:00,64.3,63.4,29.91,SSW,200,0.0,2.0,97,0.00,,,0.00,Wunderground v.1.15,2013-09-08 13:05:00,
2013-09-08 09:06:00,64.3,63.4,29.91,SSW,200,0.0,2.0,97,0.00,,,0.00,Wunderground v.1.15,2013-09-08 13:06:00,
2013-09-08 09:10:00,64.5,63.6,29.91,South,185,0.0,0.0,97,0.00,,,0.00,Wunderground v.1.15,2013-09-08 13:10:00,
2013-09-08 09:11:00,64.7,63.8,29.91,South,178,0.0,2.0,97,0.00,,,0.00,Wunderground v.1.15,2013-09-08 13:11:00,
2013-09-08 09:13:00,64.8,63.9,29.91,South,181,0.0,2.0,97,0.00,,,0.00,Wunderground v.1.15,2013-09-08 13:13:00,
2013-09-08 09:15:00,65.0,64.1,29.91,South,181,0.0,2.0,97,0.00,,,0.00,Wunderground v.1.15,2013-09-08 13:15:00,
2013-09-08 09:17:00,65.3,64.4,29.91,South,181,0.0,2.0,97,0.00,,,0.00,Wunderground v.1.15,2013-09-08 13:17:00,
2013-09-08 09:18:00,65.3,64.1,29.91,South,181,0.0,2.0,96,0.00,,,0.00,Wunderground v.1.15,2013-09-08 13:18:00,
2013-09-08 09:21:00,65.6,-99.9,29.91,South,178,0.0,0.0,255,0.00,,,0.00,Wunderground v.1.15,2013-09-08 13:21:00,
2013-09-08 09:22:00,65.8,65.8,29.91,South,178,0.0,0.0,100,0.00,,,0.00,Wunderground v.1.15,2013-09-08 13:22:00,
2013-09-08 09:23:00,65.8,65.8,29.91,South,178,0.0,0.0,100,0.00,,,0.00,Wunderground v.1.15,2013-09-08 13:23:00,
2013-09-08 09:24:00,66.0,66.0,29.91,South,178,0.0,0.0,100,0.00,,,0.00,Wunderground v.1.15,2013-09-08 13:24:00,
2013-09-08 09:25:00,66.1,66.1,29.91,South,178,0.0,0.0,100,0.00,,,0.00,Wunderground v.1.15,2013-09-08 13:25:00,
2013-09-08 09:29:00,66.4,66.4,29.91,South,178,0.0,0.0,100,0.00,,,0.00,Wunderground v.1.15,2013-09-08 13:29:00,
2013-09-08 09:30:00,66.6,66.6,29.91,South,178,0.0,0.0,100,0.00,,,0.00,Wunderground v.1.15,2013-09-08 13:30:00,
2013-09-08 09:31:00,66.6,-99.9,29.91,SW,219,0.0,0.0,255,0.00,,,0.00,Wunderground v.1.15,2013-09-08 13:31:00,
2013-09-08 09:33:00,66.9,-99.9,29.91,SW,215,0.0,0.0,255,0.00,,,0.00,Wunderground v.1.15,2013-09-08 13:33:00,
2013-09-08 09:37:00,67.4,67.4,29.91,South,176,0.0,2.0,100,0.00,,,0.00,Wunderground v.1.15,2013-09-08 13:37:00,
2013-09-08 09:38:00,67.4,67.4,29.91,South,176,0.0,2.0,100,0.00,,,0.00,Wunderground v.1.15,2013-09-08 13:38:00,
2013-09-08 09:39:00,67.6,67.6,29.91,South,176,0.0,2.0,100,0.00,,,0.00,Wunderground v.1.15,2013-09-08 13:39:00,
2013-09-08 09:40:00,67.8,67.8,29.91,South,176,0.0,0.0,100,0.00,,,0.00,Wunderground v.1.15,2013-09-08 13:40:00,
2013-09-08 09:42:00,67.9,67.9,29.91,South,175,0.0,4.0,100,0.00,,,0.00,Wunderground v.1.15,2013-09-08 13:42:00,
2013-09-08 09:45:00,68.3,68.3,29.91,South,175,0.0,4.0,100,0.00,,,0.00,Wunderground v.1.15,2013-09-08 13:45:00,
2013-09-08 09:47:00,68.6,68.6,29.91,South,175,0.0,4.0,100,0.00,,,0.00,Wunderground v.1.15,2013-09-08 13:47:00,
2013-09-08 09:49:00,68.9,68.9,29.91,SSE,167,0.0,4.0,100,0.00,,,0.00,Wunderground v.1.15,2013-09-08 13:49:00,
2013-09-08 09:50:00,69.1,69.1,29.91,SSE,167,0.0,1.0,100,0.00,,,0.00,Wunderground v.1.15,2013-09-08 13:50:00,
2013-09-08 09:51:00,69.4,69.4,29.91,SSE,168,0.0,1.0,100,0.00,,,0.00,Wunderground v.1.15,2013-09-08 13:51:00,
2013-09-08 09:52:00,69.6,69.6,29.91,SSE,168,0.0,1.0,100,0.00,,,0.00,Wunderground v.1.15,2013-09-08 13:52:00,
2013-09-08 09:55:00,69.9,-99.9,29.91,SSE,168,0.0,1.0,255,0.00,,,0.00,Wunderground v.1.15,2013-09-08 13:55:00,
2013-09-08 09:58:00,70.4,67.3,29.91,SSE,167,0.0,1.0,90,0.00,,,0.00,Wunderground v.1.15,2013-09-08 13:58:00,
2013-09-08 10:00:00,70.6,66.9,29.91,SSE,167,0.0,0.0,88,0.00,,,0.00,Wunderground v.1.15,2013-09-08 14:00:00,
2013-09-08 10:02:00,70.8,66.7,29.91,SSE,167,0.0,1.0,87,0.00,,,0.00,Wunderground v.1.15,2013-09-08 14:02:00,
2013-09-08 10:05:00,71.1,66.7,29.91,SSE,167,0.0,1.0,86,0.00,,,0.00,Wunderground v.1.15,2013-09-08 14:05:00,
2013-09-08 10:06:00,71.3,66.9,29.91,SSE,167,0.0,1.0,86,0.00,,,0.00,Wunderground v.1.15,2013-09-08 14:06:00,
2013-09-08 10:07:00,71.5,67.1,29.91,SSE,167,0.0,1.0,86,0.00,,,0.00,Wunderground v.1.15,2013-09-08 14:07:00,
2013-09-08 10:08:00,71.5,67.1,29.91,SSE,167,0.0,1.0,86,0.00,,,0.00,Wunderground v.1.15,2013-09-08 14:08:00,
2013-09-08 10:10:00,71.8,67.0,29.91,SSE,167,0.0,0.0,85,0.00,,,0.00,Wunderground v.1.15,2013-09-08 14:10:00,
2013-09-08 10:11:00,71.8,66.7,29.91,SSE,167,0.0,0.0,84,0.00,,,0.00,Wunderground v.1.15,2013-09-08 14:11:00,
2013-09-08 10:13:00,72.0,66.9,29.91,SSE,167,0.0,1.0,84,0.00,,,0.00,Wunderground v.1.15,2013-09-08 14:13:00,
2013-09-08 10:18:00,72.8,67.0,29.91,SSE,165,0.0,1.0,82,0.00,,,0.00,Wunderground v.1.15,2013-09-08 14:18:00,
2013-09-08 10:19:00,73.0,67.2,29.91,SSE,165,0.0,1.0,82,0.00,,,0.00,Wunderground v.1.15,2013-09-08 14:19:00,
2013-09-08 10:22:00,73.7,67.9,29.91,SSE,165,0.0,0.0,82,0.00,,,0.00,Wunderground v.1.15,2013-09-08 14:22:00,
2013-09-08 10:24:00,74.0,67.4,29.91,SSE,165,0.0,0.0,80,0.00,,,0.00,Wunderground v.1.15,2013-09-08 14:24:00,
2013-09-08 10:25:00,74.4,67.8,29.91,SSE,165,0.0,0.0,80,0.00,,,0.00,Wunderground v.1.15,2013-09-08 14:25:00,
2013-09-08 10:30:00,75.3,67.6,29.91,SSE,165,0.0,0.0,77,0.00,,,0.00,Wunderground v.1.15,2013-09-08 14:30:00,
2013-09-08 10:31:00,75.6,67.9,29.91,SSE,165,0.0,0.0,77,0.00,,,0.00,Wunderground v.1.15,2013-09-08 14:31:00,
2013-09-08 10:32:00,75.8,68.1,29.91,SSE,165,0.0,0.0,77,0.00,,,0.00,Wunderground v.1.15,2013-09-08 14:32:00,
2013-09-08 10:33:00,76.0,68.3,29.91,SSE,165,0.0,0.0,77,0.00,,,0.00,Wunderground v.1.15,2013-09-08 14:33:00,
2013-09-08 10:37:00,76.8,67.5,29.90,SSE,165,0.0,0.0,73,0.00,,,0.00,Wunderground v.1.15,2013-09-08 14:37:00,
2013-09-08 10:38:00,77.0,67.3,29.90,SSE,165,0.0,0.0,72,0.00,,,0.00,Wunderground v.1.15,2013-09-08 14:38:00,
2013-09-08 10:39:00,77.0,68.1,29.90,SSE,164,0.0,0.0,74,0.00,,,0.00,Wunderground v.1.15,2013-09-08 14:39:00,
2013-09-08 10:40:00,77.2,67.1,29.90,SSE,164,0.0,0.0,71,0.00,,,0.00,Wunderground v.1.15,2013-09-08 14:40:00,
2013-09-08 10:41:00,77.4,67.7,29.90,SSE,164,0.0,0.0,72,0.00,,,0.00,Wunderground v.1.15,2013-09-08 14:41:00,
2013-09-08 10:44:00,77.7,68.0,29.90,SSE,164,0.0,0.0,72,0.00,,,0.00,Wunderground v.1.15,2013-09-08 14:44:00,
2013-09-08 10:45:00,77.7,68.0,29.90,SSE,164,0.0,0.0,72,0.00,,,0.00,Wunderground v.1.15,2013-09-08 14:45:00,
2013-09-08 10:47:00,78.1,67.9,29.90,SSE,164,0.0,0.0,71,0.00,,,0.00,Wunderground v.1.15,2013-09-08 14:47:00,
2013-09-08 10:48:00,78.1,67.1,29.90,SSE,164,0.0,0.0,69,0.00,,,0.00,Wunderground v.1.15,2013-09-08 14:48:00,
2013-09-08 10:50:00,78.5,68.3,29.90,SSE,164,0.0,0.0,71,0.00,,,0.00,Wunderground v.1.15,2013-09-08 14:50:00,
2013-09-08 10:51:00,78.6,68.0,29.90,SSE,164,0.0,0.0,70,0.00,,,0.00,Wunderground v.1.15,2013-09-08 14:51:00,
2013-09-08 10:55:00,79.2,67.7,29.90,SSE,164,0.0,0.0,68,0.00,,,0.00,Wunderground v.1.15,2013-09-08 14:55:00,
2013-09-08 10:56:00,79.4,67.9,29.90,SSE,164,0.0,0.0,68,0.00,,,0.00,Wunderground v.1.15,2013-09-08 14:56:00,
2013-09-08 10:58:00,79.6,68.1,29.90,SSE,164,0.0,0.0,68,0.00,,,0.00,Wunderground v.1.15,2013-09-08 14:58:00,
2013-09-08 11:00:00,79.8,67.0,29.90,SSE,164,0.0,0.0,65,0.00,,,0.00,Wunderground v.1.15,2013-09-08 15:00:00,
2013-09-08 11:02:00,79.8,67.0,29.90,NNE,14,0.0,1.0,65,0.00,,,0.00,Wunderground v.1.15,2013-09-08 15:02:00,
2013-09-08 11:04:00,79.8,67.0,29.90,NNE,14,0.0,1.0,65,0.00,,,0.00,Wunderground v.1.15,2013-09-08 15:04:00,
2013-09-08 11:05:00,79.8,67.0,29.90,NNE,14,0.0,1.0,65,0.00,,,0.00,Wunderground v.1.15,2013-09-08 15:05:00,
2013-09-08 11:09:00,79.8,67.9,29.90,NNE,14,0.0,1.0,67,0.00,,,0.00,Wunderground v.1.15,2013-09-08 15:09:00,
2013-09-08 11:10:00,79.8,67.4,29.90,NNE,14,0.0,0.0,66,0.00,,,0.00,Wunderground v.1.15,2013-09-08 15:10:00,
2013-09-08 11:12:00,79.9,67.1,29.90,East,92,0.0,0.0,65,0.00,,,0.00,Wunderground v.1.15,2013-09-08 15:12:00,
2013-09-08 11:15:00,80.5,68.1,29.90,East,97,0.0,0.0,66,0.00,,,0.00,Wunderground v.1.15,2013-09-08 15:15:00,
2013-09-08 11:16:00,80.7,68.3,29.90,East,97,0.0,0.0,66,0.00,,,0.00,Wunderground v.1.15,2013-09-08 15:16:00,
2013-09-08 11:17:00,80.9,68.0,29.90,East,97,0.0,0.0,65,0.00,,,0.00,Wunderground v.1.15,2013-09-08 15:17:00,
2013-09-08 11:20:00,81.4,67.1,29.90,East,97,0.0,0.0,62,0.00,,,0.00,Wunderground v.1.15,2013-09-08 15:20:00,
2013-09-08 11:24:00,81.6,66.4,29.90,East,89,0.0,1.0,60,0.00,,,0.00,Wunderground v.1.15,2013-09-08 15:24:00,
2013-09-08 11:26:00,81.6,66.4,29.90,East,89,0.0,1.0,60,0.00,,,0.00,Wunderground v.1.15,2013-09-08 15:26:00,
2013-09-08 11:27:00,81.4,65.7,29.90,East,89,0.0,1.0,59,0.00,,,0.00,Wunderground v.1.15,2013-09-08 15:27:00,
2013-09-08 11:29:00,81.6,66.4,29.90,East,89,0.0,1.0,60,0.00,,,0.00,Wunderground v.1.15,2013-09-08 15:29:00,
2013-09-08 11:31:00,81.8,67.5,29.90,East,89,0.0,1.0,62,0.00,,,0.00,Wunderground v.1.15,2013-09-08 15:31:00,
2013-09-08 11:33:00,82.0,67.7,29.90,East,89,0.0,1.0,62,0.00,,,0.00,Wunderground v.1.15,2013-09-08 15:33:00,
2013-09-08 11:36:00,82.6,67.8,29.90,East,92,0.0,1.0,61,0.00,,,0.00,Wunderground v.1.15,2013-09-08 15:36:00,
2013-09-08 11:38:00,82.8,68.0,29.90,East,92,0.0,1.0,61,0.00,,,0.00,Wunderground v.1.15,2013-09-08 15:38:00,
2013-09-08 11:39:00,83.0,67.7,29.90,East,92,0.0,1.0,60,0.00,,,0.00,Wunderground v.1.15,2013-09-08 15:39:00,
2013-09-08 11:42:00,83.4,67.1,29.90,ENE,72,0.0,0.0,58,0.00,,,0.00,Wunderground v.1.15,2013-09-08 15:42:00,
2013-09-08 11:45:00,83.4,69.5,29.90,ENE,76,0.0,0.0,63,0.00,,,0.00,Wunderground v.1.15,2013-09-08 15:45:00,
2013-09-08 11:47:00,83.2,66.4,29.90,East,79,0.0,0.0,57,0.00,,,0.00,Wunderground v.1.15,2013-09-08 15:47:00,
2013-09-08 11:48:00,83.2,66.4,29.89,East,79,0.0,0.0,57,0.00,,,0.00,Wunderground v.1.15,2013-09-08 15:48:00,
2013-09-08 11:49:00,83.2,68.8,29.89,East,80,0.0,0.0,62,0.00,,,0.00,Wunderground v.1.15,2013-09-08 15:49:00,
2013-09-08 11:51:00,83.2,67.4,29.89,East,80,0.0,0.0,59,0.00,,,0.00,Wunderground v.1.15,2013-09-08 15:51:00,
2013-09-08 11:52:00,83.4,66.6,29.89,ENE,69,0.0,0.0,57,0.00,,,0.00,Wunderground v.1.15,2013-09-08 15:52:00,
2013-09-08 11:54:00,83.4,64.5,29.89,NNE,27,0.0,0.0,53,0.00,,,0.00,Wunderground v.1.15,2013-09-08 15:54:00,
2013-09-08 11:55:00,83.4,65.0,29.89,NNE,23,0.0,0.0,54,0.00,,,0.00,Wunderground v.1.15,2013-09-08 15:55:00,
2013-09-08 11:56:00,83.6,65.7,29.89,NNE,20,0.0,0.0,55,0.00,,,0.00,Wunderground v.1.15,2013-09-08 15:56:00,
2013-09-08 11:57:00,83.6,65.2,29.89,NNE,20,0.0,0.0,54,0.00,,,0.00,Wunderground v.1.15,2013-09-08 15:57:00,
2013-09-08 11:58:00,83.8,64.8,29.89,NNE,20,0.0,0.0,53,0.00,,,0.00,Wunderground v.1.15,2013-09-08 15:58:00,
2013-09-08 12:00:00,84.0,66.6,29.89,NNE,20,0.0,0.0,56,0.00,,,0.00,Wunderground v.1.15,2013-09-08 16:00:00,
2013-09-08 12:03:00,84.0,63.9,29.89,NNE,20,0.0,2.0,51,0.00,,,0.00,Wunderground v.1.15,2013-09-08 16:03:00,
2013-09-08 12:04:00,84.0,63.4,29.89,North,8,0.0,2.0,50,0.00,,,0.00,Wunderground v.1.15,2013-09-08 16:04:00,
2013-09-08 12:06:00,83.8,63.7,29.89,North,8,0.0,2.0,51,0.00,,,0.00,Wunderground v.1.15,2013-09-08 16:06:00,
2013-09-08 12:07:00,83.6,63.6,29.89,North,8,0.0,2.0,51,0.00,,,0.00,Wunderground v.1.15,2013-09-08 16:07:00,
2013-09-08 12:08:00,83.6,64.1,29.89,North,11,0.0,2.0,52,0.00,,,0.00,Wunderground v.1.15,2013-09-08 16:08:00,
2013-09-08 12:09:00,83.6,64.1,29.89,North,11,0.0,2.0,52,0.00,,,0.00,Wunderground v.1.15,2013-09-08 16:09:00,
2013-09-08 12:13:00,83.8,63.7,29.89,NNE,13,0.0,0.0,51,0.00,,,0.00,Wunderground v.1.15,2013-09-08 16:13:00,
2013-09-08 12:14:00,83.8,64.8,29.89,NNE,13,0.0,0.0,53,0.00,,,0.00,Wunderground v.1.15,2013-09-08 16:14:00,
2013-09-08 12:17:00,84.0,66.1,29.89,NNE,13,0.0,0.0,55,0.00,,,0.00,Wunderground v.1.15,2013-09-08 16:17:00,
2013-09-08 12:18:00,83.6,64.1,29.89,NNE,13,0.0,0.0,52,0.00,,,0.00,Wunderground v.1.15,2013-09-08 16:18:00,
2013-09-08 12:20:00,83.2,63.7,29.89,NE,40,0.0,0.0,52,0.00,,,0.00,Wunderground v.1.15,2013-09-08 16:20:00,
2013-09-08 12:23:00,82.8,66.0,29.89,NE,40,0.0,0.0,57,0.00,,,0.00,Wunderground v.1.15,2013-09-08 16:23:00,
2013-09-08 12:24:00,82.8,68.4,29.89,NE,40,0.0,0.0,62,0.00,,,0.00,Wunderground v.1.15,2013-09-08 16:24:00,
2013-09-08 12:25:00,82.8,68.0,29.89,NE,40,0.0,0.0,61,0.00,,,0.00,Wunderground v.1.15,2013-09-08 16:25:00,
2013-09-08 12:27:00,82.6,67.3,29.89,NE,40,0.0,0.0,60,0.00,,,0.00,Wunderground v.1.15,2013-09-08 16:27:00,
2013-09-08 12:30:00,82.6,67.8,29.89,NE,37,0.0,0.0,61,0.00,,,0.00,Wunderground v.1.15,2013-09-08 16:30:00,
2013-09-08 12:32:00,82.8,64.5,29.89,NE,37,0.0,1.0,54,0.00,,,0.00,Wunderground v.1.15,2013-09-08 16:32:00,
2013-09-08 12:33:00,82.8,64.5,29.89,NE,37,0.0,1.0,54,0.00,,,0.00,Wunderground v.1.15,2013-09-08 16:33:00,
2013-09-08 12:34:00,83.2,65.4,29.89,East,92,0.0,1.0,55,0.00,,,0.00,Wunderground v.1.15,2013-09-08 16:34:00,
2013-09-08 12:37:00,83.8,65.9,29.89,South,174,0.0,5.0,55,0.00,,,0.00,Wunderground v.1.15,2013-09-08 16:37:00,
2013-09-08 12:38:00,83.8,65.4,29.89,South,172,0.0,5.0,54,0.00,,,0.00,Wunderground v.1.15,2013-09-08 16:38:00,
2013-09-08 12:42:00,83.8,65.4,29.89,SE,126,1.0,1.0,54,0.00,,,0.00,Wunderground v.1.15,2013-09-08 16:42:00,
2013-09-08 12:45:00,83.6,65.2,29.89,SE,127,1.0,1.0,54,0.00,,,0.00,Wunderground v.1.15,2013-09-08 16:45:00,
2013-09-08 12:46:00,83.6,65.2,29.89,ENE,76,1.0,1.0,54,0.00,,,0.00,Wunderground v.1.15,2013-09-08 16:46:00,
2013-09-08 12:47:00,83.4,64.5,29.89,ENE,76,1.0,1.0,53,0.00,,,0.00,Wunderground v.1.15,2013-09-08 16:47:00,
2013-09-08 12:48:00,83.4,66.1,29.88,ENE,76,0.0,1.0,56,0.00,,,0.00,Wunderground v.1.15,2013-09-08 16:48:00,
2013-09-08 12:51:00,83.4,66.1,29.88,East,92,0.0,0.0,56,0.00,,,0.00,Wunderground v.1.15,2013-09-08 16:51:00,
2013-09-08 12:52:00,83.2,66.4,29.88,East,92,0.0,0.0,57,0.00,,,0.00,Wunderground v.1.15,2013-09-08 16:52:00,
2013-09-08 12:54:00,83.0,66.7,29.88,SE,137,0.0,0.0,58,0.00,,,0.00,Wunderground v.1.15,2013-09-08 16:54:00,
2013-09-08 12:55:00,83.0,66.7,29.88,SE,137,0.0,0.0,58,0.00,,,0.00,Wunderground v.1.15,2013-09-08 16:55:00,
2013-09-08 12:57:00,82.8,67.5,29.88,SE,136,0.0,0.0,60,0.00,,,0.00,Wunderground v.1.15,2013-09-08 16:57:00,
2013-09-08 12:59:00,82.6,67.3,29.88,SE,134,0.0,0.0,60,0.00,,,0.00,Wunderground v.1.15,2013-09-08 16:59:00,
2013-09-08 13:00:00,82.6,68.7,29.88,SE,134,0.0,0.0,63,0.00,,,0.00,Wunderground v.1.15,2013-09-08 17:00:00,
2013-09-08 13:01:00,82.6,67.8,29.88,SE,134,0.0,0.0,61,0.00,,,0.00,Wunderground v.1.15,2013-09-08 17:01:00,
2013-09-08 13:02:00,82.4,68.1,29.88,SE,134,0.0,0.0,62,0.00,,,0.00,Wunderground v.1.15,2013-09-08 17:02:00,
2013-09-08 13:04:00,82.4,68.1,29.88,SE,134,0.0,0.0,62,0.00,,,0.00,Wunderground v.1.15,2013-09-08 17:04:00,
2013-09-08 13:07:00,82.2,69.7,29.88,SE,134,0.0,0.0,66,0.00,,,0.00,Wunderground v.1.15,2013-09-08 17:07:00,
2013-09-08 13:09:00,82.0,69.1,29.88,SE,134,0.0,0.0,65,0.00,,,0.00,Wunderground v.1.15,2013-09-08 17:09:00,
2013-09-08 13:10:00,82.0,70.4,29.88,SE,134,0.0,0.0,68,0.00,,,0.00,Wunderground v.1.15,2013-09-08 17:10:00,
2013-09-08 13:14:00,81.6,70.9,29.88,SE,134,0.0,0.0,70,0.00,,,0.00,Wunderground v.1.15,2013-09-08 17:14:00,
2013-09-08 13:15:00,81.4,71.1,29.88,SE,134,0.0,0.0,71,0.00,,,0.00,Wunderground v.1.15,2013-09-08 17:15:00,
2013-09-08 13:16:00,81.2,70.9,29.88,SE,134,0.0,0.0,71,0.00,,,0.00,Wunderground v.1.15,2013-09-08 17:16:00,
2013-09-08 13:19:00,81.2,69.2,29.88,SE,134,0.0,0.0,67,0.00,,,0.00,Wunderground v.1.15,2013-09-08 17:19:00,
2013-09-08 13:20:00,81.2,69.6,29.88,SE,134,0.0,1.0,68,0.00,,,0.00,Wunderground v.1.15,2013-09-08 17:20:00,
2013-09-08 13:21:00,81.2,69.2,29.88,SE,136,0.0,1.0,67,0.00,,,0.00,Wunderground v.1.15,2013-09-08 17:21:00,
2013-09-08 13:23:00,81.4,68.5,29.88,SE,143,0.0,1.0,65,0.00,,,0.00,Wunderground v.1.15,2013-09-08 17:23:00,
2013-09-08 13:26:00,81.6,66.4,29.88,SSE,162,0.0,2.0,60,0.00,,,0.00,Wunderground v.1.15,2013-09-08 17:26:00,
2013-09-08 13:29:00,82.2,66.9,29.88,SSE,162,0.0,2.0,60,0.00,,,0.00,Wunderground v.1.15,2013-09-08 17:29:00,
2013-09-08 13:32:00,82.8,66.5,29.88,SE,136,0.0,0.0,58,0.00,,,0.00,Wunderground v.1.15,2013-09-08 17:32:00,
2013-09-08 13:35:00,83.4,65.5,29.87,South,179,0.0,2.0,55,0.00,,,0.00,Wunderground v.1.15,2013-09-08 17:35:00,
2013-09-08 13:37:00,83.8,65.4,29.87,SW,222,1.0,5.0,54,0.00,,,0.00,Wunderground v.1.15,2013-09-08 17:37:00,
2013-09-08 13:38:00,83.8,64.8,29.87,SW,223,1.0,5.0,53,0.00,,,0.00,Wunderground v.1.15,2013-09-08 17:38:00,
2013-09-08 13:40:00,84.0,64.5,29.87,SW,223,1.0,1.0,52,0.00,,,0.00,Wunderground v.1.15,2013-09-08 17:40:00,
2013-09-08 13:41:00,84.0,64.5,29.87,SW,223,1.0,1.0,52,0.00,,,0.00,Wunderground v.1.15,2013-09-08 17:41:00,
2013-09-08 13:42:00,84.0,65.0,29.87,SW,223,1.0,1.0,53,0.00,,,0.00,Wunderground v.1.15,2013-09-08 17:42:00,
2013-09-08 13:43:00,84.1,64.6,29.87,SW,223,1.0,1.0,52,0.00,,,0.00,Wunderground v.1.15,2013-09-08 17:43:00,
2013-09-08 13:46:00,84.5,65.5,29.87,SW,223,1.0,2.0,53,0.00,,,0.00,Wunderground v.1.15,2013-09-08 17:46:00,
2013-09-08 13:48:00,84.7,65.1,29.86,SW,223,1.0,2.0,52,0.00,,,0.00,Wunderground v.1.15,2013-09-08 17:48:00,
2013-09-08 13:49:00,84.7,65.7,29.86,SW,223,1.0,2.0,53,0.00,,,0.00,Wunderground v.1.15,2013-09-08 17:49:00,
2013-09-08 13:54:00,85.1,63.8,29.86,South,182,1.0,2.0,49,0.00,,,0.00,Wunderground v.1.15,2013-09-08 17:54:00,
2013-09-08 13:55:00,85.1,63.8,29.86,South,189,2.0,3.0,49,0.00,,,0.00,Wunderground v.1.15,2013-09-08 17:55:00,
2013-09-08 13:57:00,85.1,64.4,29.86,South,182,2.0,3.0,50,0.00,,,0.00,Wunderground v.1.15,2013-09-08 17:57:00,
2013-09-08 14:00:00,85.1,63.8,29.86,South,176,2.0,2.0,49,0.00,,,0.00,Wunderground v.1.15,2013-09-08 18:00:00,
2013-09-08 14:02:00,85.1,63.2,29.86,South,176,1.0,2.0,48,0.00,,,0.00,Wunderground v.1.15,2013-09-08 18:02:00,
2013-09-08 14:03:00,85.1,66.0,29.87,South,176,1.0,2.0,53,0.00,,,0.00,Wunderground v.1.15,2013-09-08 18:03:00,
2013-09-08 14:04:00,85.1,66.0,29.87,South,176,1.0,2.0,53,0.00,,,0.00,Wunderground v.1.15,2013-09-08 18:04:00,
2013-09-08 14:05:00,84.9,64.2,29.87,South,176,1.0,2.0,50,0.00,,,0.00,Wunderground v.1.15,2013-09-08 18:05:00,
2013-09-08 14:07:00,84.7,63.4,29.87,South,176,0.0,2.0,49,0.00,,,0.00,Wunderground v.1.15,2013-09-08 18:07:00,
2013-09-08 14:11:00,84.3,66.9,29.87,South,176,0.0,2.0,56,0.00,,,0.00,Wunderground v.1.15,2013-09-08 18:11:00,
2013-09-08 14:12:00,84.1,66.7,29.87,South,172,0.0,2.0,56,0.00,,,0.00,Wunderground v.1.15,2013-09-08 18:12:00,
2013-09-08 14:13:00,84.0,66.6,29.87,South,172,0.0,2.0,56,0.00,,,0.00,Wunderground v.1.15,2013-09-08 18:13:00,
2013-09-08 14:16:00,83.4,66.1,29.87,SSW,198,0.0,2.0,56,0.00,,,0.00,Wunderground v.1.15,2013-09-08 18:16:00,
2013-09-08 14:18:00,83.2,67.4,29.87,SW,222,1.0,2.0,59,0.00,,,0.00,Wunderground v.1.15,2013-09-08 18:18:00,
2013-09-08 14:19:00,83.2,67.4,29.87,SW,222,1.0,2.0,59,0.00,,,0.00,Wunderground v.1.15,2013-09-08 18:19:00,
2013-09-08 14:20:00,83.2,66.9,29.87,SW,215,1.0,1.0,58,0.00,,,0.00,Wunderground v.1.15,2013-09-08 18:20:00,
2013-09-08 14:22:00,83.2,66.9,29.87,SW,215,1.0,1.0,58,0.00,,,0.00,Wunderground v.1.15,2013-09-08 18:22:00,
2013-09-08 14:23:00,83.0,67.2,29.87,South,169,1.0,3.0,59,0.00,,,0.00,Wunderground v.1.15,2013-09-08 18:23:00,
2013-09-08 14:24:00,83.0,67.7,29.87,South,169,1.0,3.0,60,0.00,,,0.00,Wunderground v.1.15,2013-09-08 18:24:00,
2013-09-08 14:26:00,83.0,66.7,29.87,South,172,1.0,3.0,58,0.00,,,0.00,Wunderground v.1.15,2013-09-08 18:26:00,
2013-09-08 14:27:00,83.0,67.2,29.87,South,172,1.0,3.0,59,0.00,,,0.00,Wunderground v.1.15,2013-09-08 18:27:00,
2013-09-08 14:28:00,82.8,66.0,29.87,SW,219,1.0,5.0,57,0.00,,,0.00,Wunderground v.1.15,2013-09-08 18:28:00,
2013-09-08 14:31:00,82.8,65.5,29.87,SSE,165,2.0,2.0,56,0.00,,,0.00,Wunderground v.1.15,2013-09-08 18:31:00,
2013-09-08 14:33:00,82.8,66.0,29.86,South,174,2.0,2.0,57,0.00,,,0.00,Wunderground v.1.15,2013-09-08 18:33:00,
2013-09-08 14:34:00,82.6,66.3,29.86,SSE,154,2.0,4.0,58,0.00,,,0.00,Wunderground v.1.15,2013-09-08 18:34:00,
2013-09-08 14:35:00,82.6,66.3,29.86,SSE,165,2.0,4.0,58,0.00,,,0.00,Wunderground v.1.15,2013-09-08 18:35:00,
2013-09-08 14:39:00,82.4,66.1,29.86,South,174,1.0,4.0,58,0.00,,,0.00,Wunderground v.1.15,2013-09-08 18:39:00,
2013-09-08 14:41:00,82.4,66.1,29.86,South,176,1.0,2.0,58,0.00,,,0.00,Wunderground v.1.15,2013-09-08 18:41:00,
2013-09-08 14:43:00,82.4,67.1,29.86,South,175,1.0,2.0,60,0.00,,,0.00,Wunderground v.1.15,2013-09-08 18:43:00,
2013-09-08 14:44:00,82.4,66.6,29.86,South,175,1.0,2.0,59,0.00,,,0.00,Wunderground v.1.15,2013-09-08 18:44:00,
2013-09-08 14:45:00,82.4,66.6,29.86,South,175,1.0,2.0,59,0.00,,,0.00,Wunderground v.1.15,2013-09-08 18:45:00,
2013-09-08 14:46:00,82.4,67.6,29.86,South,175,0.0,2.0,61,0.00,,,0.00,Wunderground v.1.15,2013-09-08 18:46:00,
2013-09-08 14:50:00,82.4,68.5,29.86,South,175,0.0,0.0,63,0.00,,,0.00,Wunderground v.1.15,2013-09-08 18:50:00,
2013-09-08 14:52:00,82.4,68.5,29.86,South,175,0.0,0.0,63,0.00,,,0.00,Wunderground v.1.15,2013-09-08 18:52:00,
2013-09-08 14:53:00,82.4,69.0,29.86,South,175,0.0,0.0,64,0.00,,,0.00,Wunderground v.1.15,2013-09-08 18:53:00,
2013-09-08 14:55:00,82.6,70.1,29.86,South,175,0.0,0.0,66,0.00,,,0.00,Wunderground v.1.15,2013-09-08 18:55:00,
2013-09-08 14:56:00,82.4,69.9,29.86,South,175,0.0,0.0,66,0.00,,,0.00,Wunderground v.1.15,2013-09-08 18:56:00,
2013-09-08 14:58:00,82.6,71.0,29.86,South,175,0.0,0.0,68,0.00,,,0.00,Wunderground v.1.15,2013-09-08 18:58:00,
2013-09-08 15:02:00,82.4,68.1,29.86,South,172,0.0,0.0,62,0.00,,,0.00,Wunderground v.1.15,2013-09-08 19:02:00,
2013-09-08 15:04:00,82.4,69.4,29.86,SSW,205,0.0,1.0,65,0.00,,,0.00,Wunderground v.1.15,2013-09-08 19:04:00,
2013-09-08 15:05:00,82.4,67.6,29.86,SSW,205,0.0,1.0,61,0.00,,,0.00,Wunderground v.1.15,2013-09-08 19:05:00,
2013-09-08 15:07:00,82.4,68.5,29.86,SSW,205,0.0,1.0,63,0.00,,,0.00,Wunderground v.1.15,2013-09-08 19:07:00,
2013-09-08 15:08:00,82.4,66.6,29.86,SSW,205,0.0,1.0,59,0.00,,,0.00,Wunderground v.1.15,2013-09-08 19:08:00,
2013-09-08 15:10:00,82.6,67.3,29.86,SSW,205,0.0,0.0,60,0.00,,,0.00,Wunderground v.1.15,2013-09-08 19:10:00,
2013-09-08 15:11:00,82.6,66.8,29.86,SSW,205,0.0,0.0,59,0.00,,,0.00,Wunderground v.1.15,2013-09-08 19:11:00,
2013-09-08 15:12:00,82.8,67.5,29.86,SSW,205,0.0,0.0,60,0.00,,,0.00,Wunderground v.1.15,2013-09-08 19:12:00,
2013-09-08 15:13:00,82.8,67.5,29.86,SSW,205,0.0,0.0,60,0.00,,,0.00,Wunderground v.1.15,2013-09-08 19:13:00,
2013-09-08 15:17:00,83.0,68.2,29.86,SW,217,0.0,2.0,61,0.00,,,0.00,Wunderground v.1.15,2013-09-08 19:17:00,
2013-09-08 15:18:00,83.0,69.1,29.86,SW,217,0.0,2.0,63,0.00,,,0.00,Wunderground v.1.15,2013-09-08 19:18:00,
2013-09-08 15:19:00,83.0,67.7,29.86,SW,217,0.0,2.0,60,0.00,,,0.00,Wunderground v.1.15,2013-09-08 19:19:00,
2013-09-08 15:22:00,82.8,66.0,29.86,SSW,205,0.0,0.0,57,0.00,,,0.00,Wunderground v.1.15,2013-09-08 19:22:00,
2013-09-08 15:25:00,82.6,68.3,29.86,SSW,206,0.0,1.0,62,0.00,,,0.00,Wunderground v.1.15,2013-09-08 19:25:00,
2013-09-08 15:28:00,82.4,70.3,29.86,West,261,1.0,1.0,67,0.00,,,0.00,Wunderground v.1.15,2013-09-08 19:28:00,
2013-09-08 15:30:00,82.2,67.9,29.86,West,261,0.0,0.0,62,0.00,,,0.00,Wunderground v.1.15,2013-09-08 19:30:00,
2013-09-08 15:31:00,82.2,69.3,29.86,West,261,0.0,0.0,65,0.00,,,0.00,Wunderground v.1.15,2013-09-08 19:31:00,
2013-09-08 15:32:00,82.0,68.2,29.86,West,261,0.0,0.0,63,0.00,,,0.00,Wunderground v.1.15,2013-09-08 19:32:00,
2013-09-08 15:33:00,82.0,70.0,29.86,West,261,0.0,0.0,67,0.00,,,0.00,Wunderground v.1.15,2013-09-08 19:33:00,
2013-09-08 15:35:00,81.8,71.1,29.86,West,261,0.0,0.0,70,0.00,,,0.00,Wunderground v.1.15,2013-09-08 19:35:00,
2013-09-08 15:38:00,81.4,71.5,29.86,West,261,0.0,0.0,72,0.00,,,0.00,Wunderground v.1.15,2013-09-08 19:38:00,
2013-09-08 15:39:00,81.2,71.7,29.86,West,261,0.0,0.0,73,0.00,,,0.00,Wunderground v.1.15,2013-09-08 19:39:00,
2013-09-08 15:40:00,81.2,71.7,29.86,West,261,0.0,0.0,73,0.00,,,0.00,Wunderground v.1.15,2013-09-08 19:40:00,
2013-09-08 15:41:00,81.1,71.6,29.86,West,261,0.0,0.0,73,0.00,,,0.00,Wunderground v.1.15,2013-09-08 19:41:00,
2013-09-08 15:42:00,81.1,71.6,29.86,West,261,0.0,0.0,73,0.00,,,0.00,Wunderground v.1.15,2013-09-08 19:42:00,
2013-09-08 15:43:00,80.9,72.2,29.86,West,261,0.0,0.0,75,0.00,,,0.00,Wunderground v.1.15,2013-09-08 19:43:00,
2013-09-08 15:45:00,80.7,72.0,29.86,West,261,0.0,0.0,75,0.00,,,0.00,Wunderground v.1.15,2013-09-08 19:45:00,
2013-09-08 15:46:00,80.5,71.4,29.86,West,261,0.0,0.0,74,0.00,,,0.00,Wunderground v.1.15,2013-09-08 19:46:00,
2013-09-08 15:48:00,80.5,71.0,29.86,West,261,0.0,0.0,73,0.00,,,0.00,Wunderground v.1.15,2013-09-08 19:48:00,
2013-09-08 15:50:00,80.3,71.6,29.86,West,261,0.0,0.0,75,0.00,,,0.00,Wunderground v.1.15,2013-09-08 19:50:00,
2013-09-08 15:51:00,80.3,72.0,29.86,West,261,0.0,0.0,76,0.00,,,0.00,Wunderground v.1.15,2013-09-08 19:51:00,
2013-09-08 15:53:00,80.3,72.0,29.86,West,261,0.0,0.0,76,0.00,,,0.00,Wunderground v.1.15,2013-09-08 19:53:00,
2013-09-08 15:54:00,80.1,71.8,29.86,West,261,0.0,0.0,76,0.00,,,0.00,Wunderground v.1.15,2013-09-08 19:54:00,
2013-09-08 15:55:00,80.1,71.8,29.86,West,261,0.0,0.0,76,0.00,,,0.00,Wunderground v.1.15,2013-09-08 19:55:00,
2013-09-08 15:59:00,79.9,71.3,29.86,West,261,0.0,0.0,75,0.00,,,0.00,Wunderground v.1.15,2013-09-08 19:59:00,
2013-09-08 16:02:00,79.9,71.7,29.86,West,261,0.0,0.0,76,0.00,,,0.00,Wunderground v.1.15,2013-09-08 20:02:00,
2013-09-08 16:03:00,79.9,72.0,29.86,West,261,0.0,0.0,77,0.00,,,0.00,Wunderground v.1.15,2013-09-08 20:03:00,
2013-09-08 16:05:00,79.9,71.3,29.86,West,261,0.0,0.0,75,0.00,,,0.00,Wunderground v.1.15,2013-09-08 20:05:00,
2013-09-08 16:10:00,79.9,71.3,29.86,West,261,0.0,0.0,75,0.00,,,0.00,Wunderground v.1.15,2013-09-08 20:10:00,
2013-09-08 16:11:00,79.9,68.0,29.86,West,261,0.0,0.0,67,0.00,,,0.00,Wunderground v.1.15,2013-09-08 20:11:00,
2013-09-08 16:12:00,80.1,68.2,29.86,West,261,0.0,0.0,67,0.00,,,0.00,Wunderground v.1.15,2013-09-08 20:12:00,
2013-09-08 16:14:00,80.5,69.8,29.86,West,261,0.0,0.0,70,0.00,,,0.00,Wunderground v.1.15,2013-09-08 20:14:00,
2013-09-08 16:17:00,81.1,71.6,29.86,West,261,0.0,0.0,73,0.00,,,0.00,Wunderground v.1.15,2013-09-08 20:17:00,
2013-09-08 16:18:00,81.2,67.4,29.86,West,261,0.0,0.0,63,0.00,,,0.00,Wunderground v.1.15,2013-09-08 20:18:00,
2013-09-08 16:20:00,81.6,66.8,29.86,West,260,0.0,0.0,61,0.00,,,0.00,Wunderground v.1.15,2013-09-08 20:20:00,
2013-09-08 16:21:00,81.8,67.0,29.86,West,260,0.0,0.0,61,0.00,,,0.00,Wunderground v.1.15,2013-09-08 20:21:00,
2013-09-08 16:22:00,82.0,70.4,29.86,West,260,0.0,0.0,68,0.00,,,0.00,Wunderground v.1.15,2013-09-08 20:22:00,
2013-09-08 16:24:00,82.2,69.3,29.86,West,260,0.0,0.0,65,0.00,,,0.00,Wunderground v.1.15,2013-09-08 20:24:00,
2013-09-08 16:25:00,82.2,68.8,29.86,West,260,0.0,0.0,64,0.00,,,0.00,Wunderground v.1.15,2013-09-08 20:25:00,
2013-09-08 16:27:00,82.4,69.0,29.86,West,260,0.0,0.0,64,0.00,,,0.00,Wunderground v.1.15,2013-09-08 20:27:00,
2013-09-08 16:30:00,82.4,71.2,29.86,West,260,0.0,0.0,69,0.00,,,0.00,Wunderground v.1.15,2013-09-08 20:30:00,
2013-09-08 16:31:00,82.4,71.2,29.86,West,260,0.0,0.0,69,0.00,,,0.00,Wunderground v.1.15,2013-09-08 20:31:00,
2013-09-08 16:35:00,82.2,71.4,29.85,West,260,0.0,0.0,70,0.00,,,0.00,Wunderground v.1.15,2013-09-08 20:35:00,
2013-09-08 16:36:00,82.2,70.6,29.85,West,260,0.0,0.0,68,0.00,,,0.00,Wunderground v.1.15,2013-09-08 20:36:00,
2013-09-08 16:40:00,81.8,71.1,29.85,West,260,0.0,0.0,70,0.00,,,0.00,Wunderground v.1.15,2013-09-08 20:40:00,
2013-09-08 16:41:00,81.8,71.5,29.85,West,260,0.0,0.0,71,0.00,,,0.00,Wunderground v.1.15,2013-09-08 20:41:00,
2013-09-08 16:45:00,81.6,71.3,29.85,West,260,0.0,0.0,71,0.00,,,0.00,Wunderground v.1.15,2013-09-08 20:45:00,
2013-09-08 16:46:00,81.6,70.4,29.85,West,260,0.0,0.0,69,0.00,,,0.00,Wunderground v.1.15,2013-09-08 20:46:00,
2013-09-08 16:50:00,81.4,71.5,29.85,West,260,0.0,0.0,72,0.00,,,0.00,Wunderground v.1.15,2013-09-08 20:50:00,
2013-09-08 16:52:00,81.4,71.5,29.85,West,260,0.0,0.0,72,0.00,,,0.00,Wunderground v.1.15,2013-09-08 20:52:00,
2013-09-08 16:55:00,81.2,71.3,29.85,West,260,0.0,0.0,72,0.00,,,0.00,Wunderground v.1.15,2013-09-08 20:55:00,
2013-09-08 16:56:00,81.2,71.3,29.85,West,260,0.0,0.0,72,0.00,,,0.00,Wunderground v.1.15,2013-09-08 20:56:00,
2013-09-08 16:58:00,81.4,71.5,29.85,West,260,0.0,0.0,72,0.00,,,0.00,Wunderground v.1.15,2013-09-08 20:58:00,
2013-09-08 17:01:00,81.2,71.3,29.85,West,260,0.0,0.0,72,0.00,,,0.00,Wunderground v.1.15,2013-09-08 21:01:00,
2013-09-08 17:02:00,81.2,71.7,29.85,West,260,0.0,0.0,73,0.00,,,0.00,Wunderground v.1.15,2013-09-08 21:02:00,
2013-09-08 17:03:00,81.2,71.7,29.86,West,260,0.0,0.0,73,0.00,,,0.00,Wunderground v.1.15,2013-09-08 21:03:00,
2013-09-08 17:05:00,81.1,71.2,29.86,West,260,0.0,0.0,72,0.00,,,0.00,Wunderground v.1.15,2013-09-08 21:05:00,
2013-09-08 17:08:00,81.1,72.0,29.86,West,260,0.0,0.0,74,0.00,,,0.00,Wunderground v.1.15,2013-09-08 21:08:00,
2013-09-08 17:09:00,80.9,71.8,29.86,West,260,0.0,0.0,74,0.00,,,0.00,Wunderground v.1.15,2013-09-08 21:09:00,
2013-09-08 17:10:00,80.9,71.8,29.86,West,260,0.0,0.0,74,0.00,,,0.00,Wunderground v.1.15,2013-09-08 21:10:00,
2013-09-08 17:11:00,80.9,71.8,29.86,West,260,0.0,0.0,74,0.00,,,0.00,Wunderground v.1.15,2013-09-08 21:11:00,
2013-09-08 17:15:00,80.7,72.0,29.86,West,260,0.0,0.0,75,0.00,,,0.00,Wunderground v.1.15,2013-09-08 21:15:00,
2013-09-08 17:17:00,80.7,72.0,29.86,West,260,0.0,0.0,75,0.00,,,0.00,Wunderground v.1.15,2013-09-08 21:17:00,
2013-09-08 17:18:00,80.7,72.0,29.86,West,260,0.0,0.0,75,0.00,,,0.00,Wunderground v.1.15,2013-09-08 21:18:00,
2013-09-08 17:19:00,80.7,71.6,29.86,West,260,0.0,0.0,74,0.00,,,0.00,Wunderground v.1.15,2013-09-08 21:19:00,
2013-09-08 17:22:00,80.5,71.8,29.86,West,260,0.0,0.0,75,0.00,,,0.00,Wunderground v.1.15,2013-09-08 21:22:00,
2013-09-08 17:23:00,80.5,72.2,29.86,West,260,0.0,0.0,76,0.00,,,0.00,Wunderground v.1.15,2013-09-08 21:23:00,
2013-09-08 17:26:00,80.3,71.6,29.86,West,260,0.0,0.0,75,0.00,,,0.00,Wunderground v.1.15,2013-09-08 21:26:00,
2013-09-08 17:28:00,80.3,72.0,29.86,West,260,0.0,0.0,76,0.00,,,0.00,Wunderground v.1.15,2013-09-08 21:28:00,
2013-09-08 17:29:00,80.3,72.0,29.86,West,260,0.0,0.0,76,0.00,,,0.00,Wunderground v.1.15,2013-09-08 21:29:00,
2013-09-08 17:31:00,80.1,71.8,29.86,West,260,0.0,0.0,76,0.00,,,0.00,Wunderground v.1.15,2013-09-08 21:31:00,
2013-09-08 17:33:00,80.1,71.8,29.86,West,260,0.0,0.0,76,0.00,,,0.00,Wunderground v.1.15,2013-09-08 21:33:00,
2013-09-08 17:34:00,80.1,71.8,29.86,West,260,0.0,0.0,76,0.00,,,0.00,Wunderground v.1.15,2013-09-08 21:34:00,
2013-09-08 17:35:00,80.1,71.5,29.86,West,260,0.0,0.0,75,0.00,,,0.00,Wunderground v.1.15,2013-09-08 21:35:00,
2013-09-08 17:36:00,79.9,71.7,29.86,West,260,0.0,0.0,76,0.00,,,0.00,Wunderground v.1.15,2013-09-08 21:36:00,
2013-09-08 17:39:00,79.8,71.6,29.86,West,260,0.0,0.0,76,0.00,,,0.00,Wunderground v.1.15,2013-09-08 21:39:00,
2013-09-08 17:41:00,79.8,71.9,29.86,West,260,0.0,0.0,77,0.00,,,0.00,Wunderground v.1.15,2013-09-08 21:41:00,
2013-09-08 17:42:00,79.6,71.8,29.86,West,260,0.0,0.0,77,0.00,,,0.00,Wunderground v.1.15,2013-09-08 21:42:00,
2013-09-08 17:43:00,79.6,72.1,29.86,West,260,0.0,0.0,78,0.00,,,0.00,Wunderground v.1.15,2013-09-08 21:43:00,
2013-09-08 17:46:00,79.4,71.9,29.86,West,260,0.0,0.0,78,0.00,,,0.00,Wunderground v.1.15,2013-09-08 21:46:00,
2013-09-08 17:48:00,79.4,71.9,29.86,West,260,0.0,0.0,78,0.00,,,0.00,Wunderground v.1.15,2013-09-08 21:48:00,
2013-09-08 17:51:00,79.2,71.7,29.86,West,260,0.0,0.0,78,0.00,,,0.00,Wunderground v.1.15,2013-09-08 21:51:00,
2013-09-08 17:53:00,79.0,71.6,29.86,West,260,0.0,0.0,78,0.00,,,0.00,Wunderground v.1.15,2013-09-08 21:53:00,
2013-09-08 17:54:00,79.0,71.6,29.86,West,260,0.0,0.0,78,0.00,,,0.00,Wunderground v.1.15,2013-09-08 21:54:00,
2013-09-08 17:57:00,78.8,71.7,29.86,West,260,0.0,0.0,79,0.00,,,0.00,Wunderground v.1.15,2013-09-08 21:57:00,
2013-09-08 18:00:00,78.6,71.9,29.86,West,260,0.0,0.0,80,0.00,,,0.00,Wunderground v.1.15,2013-09-08 22:00:00,
2013-09-08 18:02:00,78.6,71.9,29.86,West,260,0.0,0.0,80,0.00,,,0.00,Wunderground v.1.15,2013-09-08 22:02:00,
2013-09-08 18:03:00,78.5,71.8,29.86,West,260,0.0,0.0,80,0.00,,,0.00,Wunderground v.1.15,2013-09-08 22:03:00,
2013-09-08 18:05:00,78.5,71.8,29.86,West,260,0.0,0.0,80,0.00,,,0.00,Wunderground v.1.15,2013-09-08 22:05:00,
2013-09-08 18:08:00,78.3,72.0,29.86,West,260,0.0,0.0,81,0.00,,,0.00,Wunderground v.1.15,2013-09-08 22:08:00,
2013-09-08 18:09:00,78.3,72.0,29.86,West,260,0.0,0.0,81,0.00,,,0.00,Wunderground v.1.15,2013-09-08 22:09:00,
2013-09-08 18:11:00,78.3,72.0,29.86,West,260,0.0,0.0,81,0.00,,,0.00,Wunderground v.1.15,2013-09-08 22:11:00,
2013-09-08 18:13:00,78.3,72.0,29.86,West,260,0.0,0.0,81,0.00,,,0.00,Wunderground v.1.15,2013-09-08 22:13:00,
2013-09-08 18:14:00,78.3,72.0,29.86,West,260,0.0,0.0,81,0.00,,,0.00,Wunderground v.1.15,2013-09-08 22:14:00,
2013-09-08 18:15:00,78.3,72.0,29.86,West,260,0.0,0.0,81,0.00,,,0.00,Wunderground v.1.15,2013-09-08 22:15:00,
2013-09-08 18:17:00,78.3,71.6,29.86,West,260,0.0,0.0,80,0.00,,,0.00,Wunderground v.1.15,2013-09-08 22:17:00,
2013-09-08 18:21:00,78.1,71.8,29.87,West,260,0.0,0.0,81,0.00,,,0.00,Wunderground v.1.15,2013-09-08 22:21:00,
2013-09-08 18:22:00,78.1,71.8,29.87,West,260,0.0,0.0,81,0.00,,,0.00,Wunderground v.1.15,2013-09-08 22:22:00,
2013-09-08 18:24:00,77.9,71.2,29.87,West,260,0.0,0.0,80,0.00,,,0.00,Wunderground v.1.15,2013-09-08 22:24:00,
2013-09-08 18:25:00,77.9,71.6,29.87,West,260,0.0,0.0,81,0.00,,,0.00,Wunderground v.1.15,2013-09-08 22:25:00,
2013-09-08 18:27:00,77.7,71.4,29.87,West,260,0.0,0.0,81,0.00,,,0.00,Wunderground v.1.15,2013-09-08 22:27:00,
2013-09-08 18:28:00,77.7,71.4,29.87,West,260,0.0,0.0,81,0.00,,,0.00,Wunderground v.1.15,2013-09-08 22:28:00,
2013-09-08 18:29:00,77.7,71.4,29.87,West,260,0.0,0.0,81,0.00,,,0.00,Wunderground v.1.15,2013-09-08 22:29:00,
2013-09-08 18:31:00,77.6,71.3,29.87,West,260,0.0,0.0,81,0.00,,,0.00,Wunderground v.1.15,2013-09-08 22:31:00,
2013-09-08 18:33:00,77.6,71.7,29.87,West,260,0.0,0.0,82,0.00,,,0.00,Wunderground v.1.15,2013-09-08 22:33:00,
2013-09-08 18:34:00,77.6,71.7,29.87,West,260,0.0,0.0,82,0.00,,,0.00,Wunderground v.1.15,2013-09-08 22:34:00,
2013-09-08 18:35:00,77.6,71.7,29.87,West,260,0.0,0.0,82,0.00,,,0.00,Wunderground v.1.15,2013-09-08 22:35:00,
2013-09-08 18:36:00,77.6,71.7,29.87,West,260,0.0,0.0,82,0.00,,,0.00,Wunderground v.1.15,2013-09-08 22:36:00,
2013-09-08 18:39:00,77.6,71.7,29.87,West,260,0.0,0.0,82,0.00,,,0.00,Wunderground v.1.15,2013-09-08 22:39:00,
2013-09-08 18:40:00,77.6,71.7,29.87,West,260,0.0,0.0,82,0.00,,,0.00,Wunderground v.1.15,2013-09-08 22:40:00,
2013-09-08 18:42:00,77.6,71.7,29.87,West,260,0.0,0.0,82,0.00,,,0.00,Wunderground v.1.15,2013-09-08 22:42:00,
2013-09-08 18:43:00,77.6,71.7,29.87,West,260,0.0,0.0,82,0.00,,,0.00,Wunderground v.1.15,2013-09-08 22:43:00,
2013-09-08 18:45:00,77.6,71.7,29.87,West,260,0.0,0.0,82,0.00,,,0.00,Wunderground v.1.15,2013-09-08 22:45:00,
2013-09-08 18:47:00,77.6,71.7,29.87,West,260,0.0,0.0,82,0.00,,,0.00,Wunderground v.1.15,2013-09-08 22:47:00,
2013-09-08 18:49:00,77.6,71.7,29.87,West,260,0.0,0.0,82,0.00,,,0.00,Wunderground v.1.15,2013-09-08 22:49:00,
2013-09-08 18:52:00,77.6,71.7,29.87,West,260,0.0,0.0,82,0.00,,,0.00,Wunderground v.1.15,2013-09-08 22:52:00,
2013-09-08 18:53:00,77.6,71.7,29.87,West,260,0.0,0.0,82,0.00,,,0.00,Wunderground v.1.15,2013-09-08 22:53:00,
2013-09-08 18:54:00,77.6,71.7,29.87,West,260,0.0,0.0,82,0.00,,,0.00,Wunderground v.1.15,2013-09-08 22:54:00,
2013-09-08 18:55:00,77.4,71.5,29.87,West,260,0.0,0.0,82,0.00,,,0.00,Wunderground v.1.15,2013-09-08 22:55:00,
2013-09-08 18:58:00,77.4,71.5,29.87,West,260,0.0,0.0,82,0.00,,,0.00,Wunderground v.1.15,2013-09-08 22:58:00,
2013-09-08 19:00:00,77.2,71.3,29.87,West,260,0.0,0.0,82,0.00,,,0.00,Wunderground v.1.15,2013-09-08 23:00:00,
2013-09-08 19:01:00,77.2,71.3,29.87,West,260,0.0,0.0,82,0.00,,,0.00,Wunderground v.1.15,2013-09-08 23:01:00,
2013-09-08 19:03:00,77.2,71.3,29.87,West,260,0.0,0.0,82,0.00,,,0.00,Wunderground v.1.15,2013-09-08 23:03:00,
2013-09-08 19:06:00,77.0,71.1,29.87,West,260,0.0,0.0,82,0.00,,,0.00,Wunderground v.1.15,2013-09-08 23:06:00,
2013-09-08 19:08:00,77.0,71.1,29.87,West,260,0.0,0.0,82,0.00,,,0.00,Wunderground v.1.15,2013-09-08 23:08:00,
2013-09-08 19:09:00,76.8,70.9,29.87,West,260,0.0,0.0,82,0.00,,,0.00,Wunderground v.1.15,2013-09-08 23:09:00,
2013-09-08 19:12:00,76.7,70.8,29.87,West,260,0.0,0.0,82,0.00,,,0.00,Wunderground v.1.15,2013-09-08 23:12:00,
2013-09-08 19:15:00,76.7,71.1,29.87,West,260,0.0,0.0,83,0.00,,,0.00,Wunderground v.1.15,2013-09-08 23:15:00,
2013-09-08 19:16:00,76.7,71.1,29.87,West,260,0.0,0.0,83,0.00,,,0.00,Wunderground v.1.15,2013-09-08 23:16:00,
2013-09-08 19:18:00,76.7,71.1,29.87,West,260,0.0,0.0,83,0.00,,,0.00,Wunderground v.1.15,2013-09-08 23:18:00,
2013-09-08 19:21:00,76.5,70.9,29.87,West,260,0.0,0.0,83,0.00,,,0.00,Wunderground v.1.15,2013-09-08 23:21:00,
2013-09-08 19:22:00,76.5,70.9,29.87,West,260,0.0,0.0,83,0.00,,,0.00,Wunderground v.1.15,2013-09-08 23:22:00,
2013-09-08 19:23:00,76.5,70.9,29.87,West,260,0.0,0.0,83,0.00,,,0.00,Wunderground v.1.15,2013-09-08 23:23:00,
2013-09-08 19:24:00,76.5,70.9,29.87,West,260,0.0,0.0,83,0.00,,,0.00,Wunderground v.1.15,2013-09-08 23:24:00,
2013-09-08 19:26:00,76.3,71.1,29.87,West,260,0.0,0.0,84,0.00,,,0.00,Wunderground v.1.15,2013-09-08 23:26:00,
2013-09-08 19:28:00,76.3,71.1,29.87,West,260,0.0,0.0,84,0.00,,,0.00,Wunderground v.1.15,2013-09-08 23:28:00,
2013-09-08 19:29:00,76.3,71.1,29.87,West,260,0.0,0.0,84,0.00,,,0.00,Wunderground v.1.15,2013-09-08 23:29:00,
2013-09-08 19:31:00,76.3,71.1,29.87,West,260,0.0,0.0,84,0.00,,,0.00,Wunderground v.1.15,2013-09-08 23:31:00,
2013-09-08 19:34:00,76.1,70.9,29.87,West,260,0.0,0.0,84,0.00,,,0.00,Wunderground v.1.15,2013-09-08 23:34:00,
2013-09-08 19:35:00,76.1,70.9,29.87,West,260,0.0,0.0,84,0.00,,,0.00,Wunderground v.1.15,2013-09-08 23:35:00,
2013-09-08 19:37:00,76.0,70.8,29.87,West,260,0.0,0.0,84,0.00,,,0.00,Wunderground v.1.15,2013-09-08 23:37:00,
2013-09-08 19:38:00,76.0,70.8,29.87,West,260,0.0,0.0,84,0.00,,,0.00,Wunderground v.1.15,2013-09-08 23:38:00,
2013-09-08 19:42:00,75.8,71.0,29.87,West,260,0.0,0.0,85,0.00,,,0.00,Wunderground v.1.15,2013-09-08 23:42:00,
2013-09-08 19:44:00,75.8,71.0,29.87,West,260,0.0,0.0,85,0.00,,,0.00,Wunderground v.1.15,2013-09-08 23:44:00,
2013-09-08 19:45:00,75.6,70.8,29.87,West,260,0.0,0.0,85,0.00,,,0.00,Wunderground v.1.15,2013-09-08 23:45:00,
2013-09-08 19:48:00,75.4,70.6,29.88,West,260,0.0,0.0,85,0.00,,,0.00,Wunderground v.1.15,2013-09-08 23:48:00,
2013-09-08 19:49:00,75.4,70.6,29.88,West,260,0.0,0.0,85,0.00,,,0.00,Wunderground v.1.15,2013-09-08 23:49:00,
2013-09-08 19:53:00,75.3,70.8,29.88,West,260,0.0,0.0,86,0.00,,,0.00,Wunderground v.1.15,2013-09-08 23:53:00,
2013-09-08 19:54:00,75.3,70.8,29.88,West,260,0.0,0.0,86,0.00,,,0.00,Wunderground v.1.15,2013-09-08 23:54:00,
2013-09-08 19:55:00,75.3,70.8,29.88,West,260,0.0,0.0,86,0.00,,,0.00,Wunderground v.1.15,2013-09-08 23:55:00,
2013-09-08 19:58:00,75.1,70.6,29.88,West,260,0.0,0.0,86,0.00,,,0.00,Wunderground v.1.15,2013-09-08 23:58:00,
2013-09-08 20:00:00,74.9,70.8,29.88,West,260,0.0,0.0,87,0.00,,,0.00,Wunderground v.1.15,2013-09-09 00:00:00,
2013-09-08 20:02:00,74.7,70.6,29.88,West,260,0.0,0.0,87,0.00,,,0.00,Wunderground v.1.15,2013-09-09 00:02:00,
2013-09-08 20:03:00,74.7,70.6,29.88,West,260,0.0,0.0,87,0.00,,,0.00,Wunderground v.1.15,2013-09-09 00:03:00,
2013-09-08 20:04:00,74.7,70.6,29.88,West,260,0.0,0.0,87,0.00,,,0.00,Wunderground v.1.15,2013-09-09 00:04:00,
2013-09-08 20:05:00,74.7,70.6,29.88,West,260,0.0,0.0,87,0.00,,,0.00,Wunderground v.1.15,2013-09-09 00:05:00,
2013-09-08 20:09:00,74.4,70.3,29.88,West,260,0.0,0.0,87,0.00,,,0.00,Wunderground v.1.15,2013-09-09 00:09:00,
2013-09-08 20:10:00,74.4,70.6,29.88,West,260,0.0,0.0,88,0.00,,,0.00,Wunderground v.1.15,2013-09-09 00:10:00,
2013-09-08 20:13:00,74.2,70.4,29.88,West,260,0.0,0.0,88,0.00,,,0.00,Wunderground v.1.15,2013-09-09 00:13:00,
2013-09-08 20:14:00,74.2,70.4,29.88,West,260,0.0,0.0,88,0.00,,,0.00,Wunderground v.1.15,2013-09-09 00:14:00,
2013-09-08 20:16:00,74.0,70.2,29.88,West,260,0.0,0.0,88,0.00,,,0.00,Wunderground v.1.15,2013-09-09 00:16:00,
2013-09-08 20:18:00,74.0,70.2,29.88,West,260,0.0,0.0,88,0.00,,,0.00,Wunderground v.1.15,2013-09-09 00:18:00,
2013-09-08 20:20:00,73.9,70.1,29.88,West,260,0.0,0.0,88,0.00,,,0.00,Wunderground v.1.15,2013-09-09 00:20:00,
2013-09-08 20:22:00,73.9,70.1,29.88,West,260,0.0,0.0,88,0.00,,,0.00,Wunderground v.1.15,2013-09-09 00:22:00,
2013-09-08 20:23:00,73.9,70.5,29.88,West,260,0.0,0.0,89,0.00,,,0.00,Wunderground v.1.15,2013-09-09 00:23:00,
2013-09-08 20:24:00,73.9,70.5,29.88,West,260,0.0,0.0,89,0.00,,,0.00,Wunderground v.1.15,2013-09-09 00:24:00,
2013-09-08 20:25:00,73.7,70.3,29.88,West,260,0.0,0.0,89,0.00,,,0.00,Wunderground v.1.15,2013-09-09 00:25:00,
2013-09-08 20:29:00,73.5,69.7,29.88,West,260,0.0,0.0,88,0.00,,,0.00,Wunderground v.1.15,2013-09-09 00:29:00,
2013-09-08 20:30:00,73.5,69.7,29.88,West,260,0.0,0.0,88,0.00,,,0.00,Wunderground v.1.15,2013-09-09 00:30:00,
2013-09-08 20:31:00,73.5,70.1,29.88,West,260,0.0,0.0,89,0.00,,,0.00,Wunderground v.1.15,2013-09-09 00:31:00,
2013-09-08 20:33:00,73.3,69.9,29.88,West,260,0.0,0.0,89,0.00,,,0.00,Wunderground v.1.15,2013-09-09 00:33:00,
2013-09-08 20:34:00,73.3,69.9,29.88,West,260,0.0,0.0,89,0.00,,,0.00,Wunderground v.1.15,2013-09-09 00:34:00,
2013-09-08 20:35:00,73.3,69.9,29.88,West,260,0.0,0.0,89,0.00,,,0.00,Wunderground v.1.15,2013-09-09 00:35:00,
2013-09-08 20:37:00,73.3,69.9,29.88,West,260,0.0,0.0,89,0.00,,,0.00,Wunderground v.1.15,2013-09-09 00:37:00,
2013-09-08 20:40:00,73.2,69.8,29.88,West,260,0.0,0.0,89,0.00,,,0.00,Wunderground v.1.15,2013-09-09 00:40:00,
2013-09-08 20:41:00,73.0,69.6,29.88,West,260,0.0,0.0,89,0.00,,,0.00,Wunderground v.1.15,2013-09-09 00:41:00,
2013-09-08 20:42:00,73.0,69.6,29.88,West,260,0.0,0.0,89,0.00,,,0.00,Wunderground v.1.15,2013-09-09 00:42:00,
2013-09-08 20:46:00,72.8,69.4,29.88,West,260,0.0,0.0,89,0.00,,,0.00,Wunderground v.1.15,2013-09-09 00:46:00,
2013-09-08 20:50:00,72.7,69.3,29.89,West,260,0.0,0.0,89,0.00,,,0.00,Wunderground v.1.15,2013-09-09 00:50:00,
2013-09-08 20:51:00,72.7,69.3,29.89,West,260,0.0,0.0,89,0.00,,,0.00,Wunderground v.1.15,2013-09-09 00:51:00,
2013-09-08 20:52:00,72.5,69.1,29.89,West,260,0.0,0.0,89,0.00,,,0.00,Wunderground v.1.15,2013-09-09 00:52:00,
2013-09-08 20:53:00,72.5,69.1,29.89,West,260,0.0,0.0,89,0.00,,,0.00,Wunderground v.1.15,2013-09-09 00:53:00,
2013-09-08 20:58:00,72.3,68.9,29.89,West,260,0.0,0.0,89,0.00,,,0.00,Wunderground v.1.15,2013-09-09 00:58:00,
2013-09-08 20:59:00,72.1,68.7,29.89,West,260,0.0,0.0,89,0.00,,,0.00,Wunderground v.1.15,2013-09-09 00:59:00,
2013-09-08 21:01:00,72.1,68.7,29.89,West,260,0.0,0.0,89,0.00,,,0.00,Wunderground v.1.15,2013-09-09 01:01:00,
2013-09-08 21:02:00,72.0,68.6,29.89,West,260,0.0,0.0,89,0.00,,,0.00,Wunderground v.1.15,2013-09-09 01:02:00,
2013-09-08 21:04:00,72.0,68.6,29.90,West,260,0.0,0.0,89,0.00,,,0.00,Wunderground v.1.15,2013-09-09 01:04:00,
2013-09-08 21:05:00,71.8,68.4,29.90,West,260,0.0,0.0,89,0.00,,,0.00,Wunderground v.1.15,2013-09-09 01:05:00,
2013-09-08 21:06:00,71.8,68.4,29.90,West,260,0.0,0.0,89,0.00,,,0.00,Wunderground v.1.15,2013-09-09 01:06:00,
2013-09-08 21:07:00,71.8,68.7,29.90,West,260,0.0,0.0,90,0.00,,,0.00,Wunderground v.1.15,2013-09-09 01:07:00,
2013-09-08 21:10:00,71.6,68.5,29.90,West,260,0.0,0.0,90,0.00,,,0.00,Wunderground v.1.15,2013-09-09 01:10:00,
2013-09-08 21:11:00,71.6,68.5,29.90,West,260,0.0,0.0,90,0.00,,,0.00,Wunderground v.1.15,2013-09-09 01:11:00,
2013-09-08 21:12:00,71.6,68.5,29.90,West,260,0.0,0.0,90,0.00,,,0.00,Wunderground v.1.15,2013-09-09 01:12:00,
2013-09-08 21:13:00,71.6,68.5,29.90,West,260,0.0,0.0,90,0.00,,,0.00,Wunderground v.1.15,2013-09-09 01:13:00,
2013-09-08 21:14:00,71.5,68.4,29.90,West,260,0.0,0.0,90,0.00,,,0.00,Wunderground v.1.15,2013-09-09 01:14:00,
2013-09-08 21:18:00,71.3,68.2,29.90,West,260,0.0,0.0,90,0.00,,,0.00,Wunderground v.1.15,2013-09-09 01:18:00,
2013-09-08 21:19:00,71.3,68.2,29.90,West,260,0.0,0.0,90,0.00,,,0.00,Wunderground v.1.15,2013-09-09 01:19:00,
2013-09-08 21:20:00,71.3,68.2,29.90,West,260,0.0,0.0,90,0.00,,,0.00,Wunderground v.1.15,2013-09-09 01:20:00,
2013-09-08 21:23:00,71.1,68.0,29.90,West,260,0.0,0.0,90,0.00,,,0.00,Wunderground v.1.15,2013-09-09 01:23:00,
2013-09-08 21:25:00,71.1,68.0,29.90,West,260,0.0,0.0,90,0.00,,,0.00,Wunderground v.1.15,2013-09-09 01:25:00,
2013-09-08 21:26:00,70.9,67.8,29.90,West,260,0.0,0.0,90,0.00,,,0.00,Wunderground v.1.15,2013-09-09 01:26:00,
2013-09-08 21:28:00,70.9,67.8,29.90,West,260,0.0,0.0,90,0.00,,,0.00,Wunderground v.1.15,2013-09-09 01:28:00,
2013-09-08 21:30:00,70.9,67.8,29.90,West,260,0.0,0.0,90,0.00,,,0.00,Wunderground v.1.15,2013-09-09 01:30:00,
2013-09-08 21:31:00,70.8,67.7,29.90,West,260,0.0,0.0,90,0.00,,,0.00,Wunderground v.1.15,2013-09-09 01:31:00,
2013-09-08 21:32:00,70.8,67.7,29.90,West,260,0.0,0.0,90,0.00,,,0.00,Wunderground v.1.15,2013-09-09 01:32:00,
2013-09-08 21:35:00,70.8,68.0,29.91,West,260,0.0,0.0,91,0.00,,,0.00,Wunderground v.1.15,2013-09-09 01:35:00,
2013-09-08 21:37:00,70.6,67.8,29.91,West,260,0.0,0.0,91,0.00,,,0.00,Wunderground v.1.15,2013-09-09 01:37:00,
2013-09-08 21:42:00,70.4,67.6,29.91,West,260,0.0,0.0,91,0.00,,,0.00,Wunderground v.1.15,2013-09-09 01:42:00,
2013-09-08 21:43:00,70.4,67.6,29.91,West,260,0.0,0.0,91,0.00,,,0.00,Wunderground v.1.15,2013-09-09 01:43:00,
2013-09-08 21:44:00,70.4,67.6,29.91,West,260,0.0,0.0,91,0.00,,,0.00,Wunderground v.1.15,2013-09-09 01:44:00,
2013-09-08 21:48:00,70.3,67.5,29.91,West,260,0.0,0.0,91,0.00,,,0.00,Wunderground v.1.15,2013-09-09 01:48:00,
2013-09-08 21:49:00,70.3,67.5,29.91,West,260,0.0,0.0,91,0.00,,,0.00,Wunderground v.1.15,2013-09-09 01:49:00,
2013-09-08 21:50:00,70.1,67.3,29.91,West,260,0.0,0.0,91,0.00,,,0.00,Wunderground v.1.15,2013-09-09 01:50:00,
2013-09-08 21:52:00,70.1,67.3,29.91,West,260,0.0,0.0,91,0.00,,,0.00,Wunderground v.1.15,2013-09-09 01:52:00,
2013-09-08 21:55:00,69.9,67.2,29.91,West,260,0.0,0.0,91,0.00,,,0.00,Wunderground v.1.15,2013-09-09 01:55:00,
2013-09-08 21:57:00,69.9,67.2,29.91,West,260,0.0,0.0,91,0.00,,,0.00,Wunderground v.1.15,2013-09-09 01:57:00,
2013-09-08 21:59:00,69.8,67.1,29.91,West,260,0.0,0.0,91,0.00,,,0.00,Wunderground v.1.15,2013-09-09 01:59:00,
2013-09-08 22:01:00,69.8,67.1,29.91,West,260,0.0,0.0,91,0.00,,,0.00,Wunderground v.1.15,2013-09-09 02:01:00,
2013-09-08 22:02:00,69.8,67.1,29.91,West,260,0.0,0.0,91,0.00,,,0.00,Wunderground v.1.15,2013-09-09 02:02:00,
2013-09-08 22:03:00,69.6,67.2,29.92,West,260,0.0,0.0,92,0.00,,,0.00,Wunderground v.1.15,2013-09-09 02:03:00,
2013-09-08 22:04:00,69.6,66.9,29.92,West,260,0.0,0.0,91,0.00,,,0.00,Wunderground v.1.15,2013-09-09 02:04:00,
2013-09-08 22:07:00,69.4,67.0,29.92,West,260,0.0,0.0,92,0.00,,,0.00,Wunderground v.1.15,2013-09-09 02:07:00,
2013-09-08 22:08:00,69.4,67.0,29.92,West,260,0.0,0.0,92,0.00,,,0.00,Wunderground v.1.15,2013-09-09 02:08:00,
2013-09-08 22:09:00,69.4,67.0,29.92,West,260,0.0,0.0,92,0.00,,,0.00,Wunderground v.1.15,2013-09-09 02:09:00,
2013-09-08 22:11:00,69.4,67.0,29.92,West,260,0.0,0.0,92,0.00,,,0.00,Wunderground v.1.15,2013-09-09 02:11:00,
2013-09-08 22:12:00,69.4,67.0,29.92,West,260,0.0,0.0,92,0.00,,,0.00,Wunderground v.1.15,2013-09-09 02:12:00,
2013-09-08 22:16:00,69.3,66.9,29.92,West,260,0.0,0.0,92,0.00,,,0.00,Wunderground v.1.15,2013-09-09 02:16:00,
2013-09-08 22:17:00,69.3,66.9,29.92,West,260,0.0,0.0,92,0.00,,,0.00,Wunderground v.1.15,2013-09-09 02:17:00,
2013-09-08 22:20:00,69.1,66.7,29.91,West,260,0.0,0.0,92,0.00,,,0.00,Wunderground v.1.15,2013-09-09 02:20:00,
2013-09-08 22:22:00,69.1,66.7,29.91,West,260,0.0,0.0,92,0.00,,,0.00,Wunderground v.1.15,2013-09-09 02:22:00,
2013-09-08 22:23:00,69.1,66.7,29.91,West,260,0.0,0.0,92,0.00,,,0.00,Wunderground v.1.15,2013-09-09 02:23:00,
2013-09-08 22:24:00,68.9,66.5,29.91,West,260,0.0,0.0,92,0.00,,,0.00,Wunderground v.1.15,2013-09-09 02:24:00,
2013-09-08 22:27:00,68.9,66.5,29.91,West,260,0.0,0.0,92,0.00,,,0.00,Wunderground v.1.15,2013-09-09 02:27:00,
2013-09-08 22:28:00,68.9,66.5,29.91,West,260,0.0,0.0,92,0.00,,,0.00,Wunderground v.1.15,2013-09-09 02:28:00,
2013-09-08 22:30:00,68.8,66.4,29.91,West,260,0.0,0.0,92,0.00,,,0.00,Wunderground v.1.15,2013-09-09 02:30:00,
2013-09-08 22:31:00,68.8,66.4,29.91,West,260,0.0,0.0,92,0.00,,,0.00,Wunderground v.1.15,2013-09-09 02:31:00,
2013-09-08 22:33:00,68.8,66.4,29.91,West,260,0.0,0.0,92,0.00,,,0.00,Wunderground v.1.15,2013-09-09 02:33:00,
2013-09-08 22:35:00,68.8,66.4,29.91,West,260,0.0,0.0,92,0.00,,,0.00,Wunderground v.1.15,2013-09-09 02:35:00,
2013-09-08 22:37:00,68.6,66.2,29.91,West,260,0.0,0.0,92,0.00,,,0.00,Wunderground v.1.15,2013-09-09 02:37:00,
2013-09-08 22:38:00,68.6,66.2,29.91,West,260,0.0,0.0,92,0.00,,,0.00,Wunderground v.1.15,2013-09-09 02:38:00,
2013-09-08 22:39:00,68.6,66.2,29.91,West,260,0.0,0.0,92,0.00,,,0.00,Wunderground v.1.15,2013-09-09 02:39:00,
2013-09-08 22:43:00,68.4,66.0,29.91,West,260,0.0,0.0,92,0.00,,,0.00,Wunderground v.1.15,2013-09-09 02:43:00,
2013-09-08 22:44:00,68.4,66.0,29.91,West,260,0.0,0.0,92,0.00,,,0.00,Wunderground v.1.15,2013-09-09 02:44:00,
2013-09-08 22:45:00,68.4,66.0,29.91,West,260,0.0,0.0,92,0.00,,,0.00,Wunderground v.1.15,2013-09-09 02:45:00,
2013-09-08 22:49:00,68.3,65.9,29.91,West,260,0.0,0.0,92,0.00,,,0.00,Wunderground v.1.15,2013-09-09 02:49:00,
2013-09-08 22:50:00,68.3,65.9,29.91,West,260,0.0,0.0,92,0.00,,,0.00,Wunderground v.1.15,2013-09-09 02:50:00,
2013-09-08 22:52:00,68.3,65.9,29.91,West,260,0.0,0.0,92,0.00,,,0.00,Wunderground v.1.15,2013-09-09 02:52:00,
2013-09-08 22:55:00,68.1,65.7,29.91,West,260,0.0,0.0,92,0.00,,,0.00,Wunderground v.1.15,2013-09-09 02:55:00,
2013-09-08 22:56:00,68.1,65.7,29.91,West,260,0.0,0.0,92,0.00,,,0.00,Wunderground v.1.15,2013-09-09 02:56:00,
2013-09-08 22:57:00,68.1,65.7,29.91,West,260,0.0,0.0,92,0.00,,,0.00,Wunderground v.1.15,2013-09-09 02:57:00,
2013-09-08 23:02:00,67.9,65.5,29.91,West,260,0.0,0.0,92,0.00,,,0.00,Wunderground v.1.15,2013-09-09 03:02:00,
2013-09-08 23:03:00,67.9,65.5,29.92,West,260,0.0,0.0,92,0.00,,,0.00,Wunderground v.1.15,2013-09-09 03:03:00,
2013-09-08 23:04:00,67.9,65.5,29.92,West,260,0.0,0.0,92,0.00,,,0.00,Wunderground v.1.15,2013-09-09 03:04:00,
2013-09-08 23:06:00,67.8,65.4,29.92,West,260,0.0,0.0,92,0.00,,,0.00,Wunderground v.1.15,2013-09-09 03:06:00,
2013-09-08 23:07:00,67.8,65.4,29.92,West,260,0.0,0.0,92,0.00,,,0.00,Wunderground v.1.15,2013-09-09 03:07:00,
2013-09-08 23:09:00,67.8,65.4,29.92,West,260,0.0,0.0,92,0.00,,,0.00,Wunderground v.1.15,2013-09-09 03:09:00,
2013-09-08 23:10:00,67.8,65.4,29.92,West,260,0.0,0.0,92,0.00,,,0.00,Wunderground v.1.15,2013-09-09 03:10:00,
2013-09-08 23:13:00,67.6,65.2,29.92,West,260,0.0,0.0,92,0.00,,,0.00,Wunderground v.1.15,2013-09-09 03:13:00,
2013-09-08 23:15:00,67.6,65.2,29.92,West,260,0.0,0.0,92,0.00,,,0.00,Wunderground v.1.15,2013-09-09 03:15:00,
2013-09-08 23:16:00,67.6,65.2,29.92,West,260,0.0,0.0,92,0.00,,,0.00,Wunderground v.1.15,2013-09-09 03:16:00,
2013-09-08 23:17:00,67.6,65.2,29.92,West,260,0.0,0.0,92,0.00,,,0.00,Wunderground v.1.15,2013-09-09 03:17:00,
2013-09-08 23:18:00,67.6,65.2,29.92,West,260,0.0,0.0,92,0.00,,,0.00,Wunderground v.1.15,2013-09-09 03:18:00,
2013-09-08 23:21:00,67.4,65.0,29.92,West,260,0.0,0.0,92,0.00,,,0.00,Wunderground v.1.15,2013-09-09 03:21:00,
2013-09-08 23:23:00,67.4,65.0,29.92,West,260,0.0,0.0,92,0.00,,,0.00,Wunderground v.1.15,2013-09-09 03:23:00,
2013-09-08 23:27:00,67.3,64.9,29.92,West,260,0.0,0.0,92,0.00,,,0.00,Wunderground v.1.15,2013-09-09 03:27:00,
2013-09-08 23:29:00,67.3,64.9,29.92,West,260,0.0,0.0,92,0.00,,,0.00,Wunderground v.1.15,2013-09-09 03:29:00,
2013-09-08 23:31:00,67.1,64.7,29.92,West,260,0.0,0.0,92,0.00,,,0.00,Wunderground v.1.15,2013-09-09 03:31:00,
2013-09-08 23:34:00,66.9,64.5,29.92,West,260,0.0,0.0,92,0.00,,,0.00,Wunderground v.1.15,2013-09-09 03:34:00,
2013-09-08 23:36:00,66.9,64.5,29.92,West,260,0.0,0.0,92,0.00,,,0.00,Wunderground v.1.15,2013-09-09 03:36:00,
2013-09-08 23:37:00,66.9,64.5,29.92,West,260,0.0,0.0,92,0.00,,,0.00,Wunderground v.1.15,2013-09-09 03:37:00,
2013-09-08 23:40:00,66.8,64.4,29.92,West,260,0.0,0.0,92,0.00,,,0.00,Wunderground v.1.15,2013-09-09 03:40:00,
2013-09-08 23:41:00,66.8,64.4,29.92,West,260,0.0,0.0,92,0.00,,,0.00,Wunderground v.1.15,2013-09-09 03:41:00,
2013-09-08 23:44:00,66.8,64.4,29.92,West,260,0.0,0.0,92,0.00,,,0.00,Wunderground v.1.15,2013-09-09 03:44:00,
2013-09-08 23:45:00,66.8,64.4,29.92,West,260,0.0,0.0,92,0.00,,,0.00,Wunderground v.1.15,2013-09-09 03:45:00,
2013-09-08 23:46:00,66.6,64.2,29.92,West,260,0.0,0.0,92,0.00,,,0.00,Wunderground v.1.15,2013-09-09 03:46:00,
2013-09-08 23:47:00,66.6,64.2,29.92,West,260,0.0,0.0,92,0.00,,,0.00,Wunderground v.1.15,2013-09-09 03:47:00,
2013-09-08 23:49:00,66.6,64.2,29.92,West,260,0.0,0.0,92,0.00,,,0.00,Wunderground v.1.15,2013-09-09 03:49:00,
2013-09-08 23:51:00,66.6,64.2,29.92,West,260,0.0,0.0,92,0.00,,,0.00,Wunderground v.1.15,2013-09-09 03:51:00,
2013-09-08 23:54:00,66.4,64.0,29.92,West,260,0.0,0.0,92,0.00,,,0.00,Wunderground v.1.15,2013-09-09 03:54:00,
2013-09-08 23:55:00,66.4,64.0,29.92,West,260,0.0,0.0,92,0.00,,,0.00,Wunderground v.1.15,2013-09-09 03:55:00,
2013-09-08 23:59:00,66.4,64.0,29.92,West,260,0.0,0.0,92,0.00,,,0.00,Wunderground v.1.15,2013-09-09 03:59:00,